Time,TemperatureF,DewpointF,PressureIn,WindDirection,WindDirectionDegrees,WindSpeedMPH,WindSpeedGustMPH,Humidity,HourlyPrecipIn,Conditions,Clouds,dailyrainin,SoftwareType,DateUTC
2013-02-02 00:00:00,18.5,3.8,30.01,NNW,338,0.0,0.0,52,0.00,CLR,,0.00,WeatherDisplay:10.37,2013-02-02 05:00:00,
2013-02-02 00:05:00,18.5,3.8,30.01,NW,315,0.0,0.0,52,0.00,CLR,,0.00,WeatherDisplay:10.37,2013-02-02 05:05:00,
2013-02-02 00:10:00,18.5,3.4,30.01,NNE,22,0.0,0.0,51,0.00,CLR,,0.00,WeatherDisplay:10.37,2013-02-02 05:10:00,
2013-02-02 00:11:00,18.5,3.4,30.01,NNW,338,0.0,0.0,51,0.00,CLR,,0.00,WeatherDisplay:10.37,2013-02-02 05:11:00,
2013-02-02 00:15:00,18.5,2.9,30.01,NNW,338,0.0,0.0,50,0.00,CLR,,0.00,WeatherDisplay:10.37,2013-02-02 05:15:00,
2013-02-02 00:16:00,18.5,2.9,30.01,NNW,338,0.0,0.0,50,0.00,CLR,,0.00,WeatherDisplay:10.37,2013-02-02 05:16:00,
2013-02-02 00:20:00,18.5,2.9,30.01,WNW,292,0.0,0.0,50,0.00,CLR,,0.00,WeatherDisplay:10.37,2013-02-02 05:20:00,
2013-02-02 00:21:00,18.5,2.9,30.01,ESE,112,0.0,0.0,50,0.00,CLR,,0.00,WeatherDisplay:10.37,2013-02-02 05:21:00,
2013-02-02 00:25:00,18.5,2.5,30.01,West,270,0.0,0.0,49,0.00,CLR,,0.00,WeatherDisplay:10.37,2013-02-02 05:25:00,
2013-02-02 00:26:00,18.5,2.5,30.01,WNW,292,0.0,0.0,49,0.00,CLR,,0.00,WeatherDisplay:10.37,2013-02-02 05:26:00,
2013-02-02 00:30:00,18.5,2.9,30.01,NNW,338,0.0,0.0,50,0.00,CLR,,0.00,WeatherDisplay:10.37,2013-02-02 05:30:00,
2013-02-02 00:31:00,18.5,2.9,30.01,NW,315,0.0,0.0,50,0.00,CLR,,0.00,WeatherDisplay:10.37,2013-02-02 05:31:00,
2013-02-02 00:32:00,18.5,2.9,30.01,NNW,338,0.0,0.0,50,0.00,CLR,,0.00,WeatherDisplay:10.37,2013-02-02 05:32:00,
2013-02-02 00:35:00,18.7,3.1,30.01,North,0,0.0,0.0,50,0.00,CLR,,0.00,WeatherDisplay:10.37,2013-02-02 05:35:00,
2013-02-02 00:36:00,18.7,3.1,30.01,NNE,22,0.0,0.0,50,0.00,CLR,,0.00,WeatherDisplay:10.37,2013-02-02 05:36:00,
2013-02-02 00:37:00,18.7,3.1,30.01,WNW,292,0.0,0.0,50,0.00,CLR,,0.00,WeatherDisplay:10.37,2013-02-02 05:37:00,
2013-02-02 00:41:00,18.7,3.1,30.01,North,0,0.0,0.0,50,0.00,CLR,,0.00,WeatherDisplay:10.37,2013-02-02 05:41:00,
2013-02-02 00:42:00,18.7,3.1,30.01,NNE,22,0.0,0.0,50,0.00,CLR,,0.00,WeatherDisplay:10.37,2013-02-02 05:42:00,
2013-02-02 00:46:00,18.7,3.1,30.01,WNW,292,0.0,0.0,50,0.00,CLR,,0.00,WeatherDisplay:10.37,2013-02-02 05:46:00,
2013-02-02 00:47:00,18.7,3.1,30.01,NNW,338,0.0,0.0,50,0.00,CLR,,0.00,WeatherDisplay:10.37,2013-02-02 05:47:00,
2013-02-02 00:51:00,18.7,3.5,30.01,NNE,22,0.0,0.0,51,0.00,CLR,,0.00,WeatherDisplay:10.37,2013-02-02 05:51:00,
2013-02-02 00:52:00,18.7,3.5,30.01,WNW,292,0.0,0.0,51,0.00,CLR,,0.00,WeatherDisplay:10.37,2013-02-02 05:52:00,
2013-02-02 00:56:00,18.9,3.7,30.01,NNE,22,0.0,0.0,51,0.00,CLR,,0.00,WeatherDisplay:10.37,2013-02-02 05:56:00,
2013-02-02 00:57:00,18.9,3.7,30.01,WNW,292,0.0,0.0,51,0.00,CLR,,0.00,WeatherDisplay:10.37,2013-02-02 05:57:00,
2013-02-02 01:01:00,18.9,3.7,30.01,WNW,292,0.0,0.0,51,0.00,CLR,,0.00,WeatherDisplay:10.37,2013-02-02 06:01:00,
2013-02-02 01:02:00,18.9,3.7,30.01,West,270,0.0,0.0,51,0.00,CLR,,0.00,WeatherDisplay:10.37,2013-02-02 06:02:00,
2013-02-02 01:06:00,18.9,3.7,30.01,WNW,292,0.0,0.0,51,0.00,CLR,,0.00,WeatherDisplay:10.37,2013-02-02 06:06:00,
2013-02-02 01:07:00,18.9,3.7,30.01,WNW,292,0.0,0.0,51,0.00,CLR,,0.00,WeatherDisplay:10.37,2013-02-02 06:07:00,
2013-02-02 01:11:00,19.0,3.4,30.01,NNW,338,0.0,0.0,50,0.00,CLR,,0.00,WeatherDisplay:10.37,2013-02-02 06:11:00,
2013-02-02 01:12:00,18.9,3.7,30.01,NW,315,0.0,0.0,51,0.00,CLR,,0.00,WeatherDisplay:10.37,2013-02-02 06:12:00,
2013-02-02 01:13:00,18.9,3.7,30.01,NNE,22,0.0,0.0,51,0.00,CLR,,0.00,WeatherDisplay:10.37,2013-02-02 06:13:00,
2013-02-02 01:16:00,19.0,3.9,30.01,WNW,292,0.0,0.0,51,0.00,CLR,,0.00,WeatherDisplay:10.37,2013-02-02 06:16:00,
2013-02-02 01:17:00,19.0,3.4,30.01,West,270,0.0,0.0,50,0.00,CLR,,0.00,WeatherDisplay:10.37,2013-02-02 06:17:00,
2013-02-02 01:18:00,19.0,3.4,30.01,West,270,0.0,0.0,50,0.00,CLR,,0.00,WeatherDisplay:10.37,2013-02-02 06:18:00,
2013-02-02 01:21:00,19.0,3.4,30.01,WNW,292,0.0,0.0,50,0.00,CLR,,0.00,WeatherDisplay:10.37,2013-02-02 06:21:00,
2013-02-02 01:23:00,19.0,3.4,30.01,NNE,22,0.0,0.0,50,0.00,CLR,,0.00,WeatherDisplay:10.37,2013-02-02 06:23:00,
2013-02-02 01:26:00,19.0,3.4,30.01,NNE,22,0.0,0.0,50,0.00,CLR,,0.00,WeatherDisplay:10.37,2013-02-02 06:26:00,
2013-02-02 01:28:00,19.0,3.4,30.01,NW,315,0.0,0.0,50,0.00,CLR,,0.00,WeatherDisplay:10.37,2013-02-02 06:28:00,
2013-02-02 01:32:00,19.0,3.4,30.01,North,0,0.0,0.0,50,0.00,CLR,,0.00,WeatherDisplay:10.37,2013-02-02 06:32:00,
2013-02-02 01:33:00,19.0,3.9,30.01,NW,315,0.0,0.0,51,0.00,CLR,,0.00,WeatherDisplay:10.37,2013-02-02 06:33:00,
2013-02-02 01:37:00,19.0,4.7,30.01,WNW,292,0.0,0.0,53,0.00,CLR,,0.00,WeatherDisplay:10.37,2013-02-02 06:37:00,
2013-02-02 01:38:00,19.0,4.7,30.01,NW,315,0.0,0.0,53,0.00,CLR,,0.00,WeatherDisplay:10.37,2013-02-02 06:38:00,
2013-02-02 01:42:00,18.9,4.9,30.01,NW,315,0.0,0.0,54,0.00,CLR,,0.00,WeatherDisplay:10.37,2013-02-02 06:42:00,
2013-02-02 01:43:00,18.9,4.9,30.01,WNW,292,0.0,0.0,54,0.00,CLR,,0.00,WeatherDisplay:10.37,2013-02-02 06:43:00,
2013-02-02 01:44:00,18.9,4.9,30.01,ENE,68,0.0,0.0,54,0.00,CLR,,0.00,WeatherDisplay:10.37,2013-02-02 06:44:00,
2013-02-02 01:47:00,18.7,4.8,30.01,NNW,338,0.0,0.0,54,0.00,CLR,,0.00,WeatherDisplay:10.37,2013-02-02 06:47:00,
2013-02-02 01:48:00,18.7,5.2,30.01,NNW,338,0.0,0.0,55,0.00,CLR,,0.00,WeatherDisplay:10.37,2013-02-02 06:48:00,
2013-02-02 01:49:00,18.7,5.2,30.01,NW,315,0.0,0.0,55,0.00,CLR,,0.00,WeatherDisplay:10.37,2013-02-02 06:49:00,
2013-02-02 01:52:00,18.7,5.2,30.01,SSE,158,0.0,0.0,55,0.00,CLR,,0.00,WeatherDisplay:10.37,2013-02-02 06:52:00,
2013-02-02 01:54:00,18.7,5.6,30.01,NW,315,0.0,0.0,56,0.00,CLR,,0.00,WeatherDisplay:10.37,2013-02-02 06:54:00,
2013-02-02 01:57:00,18.5,5.8,30.01,WNW,292,0.0,0.0,57,0.00,CLR,,0.00,WeatherDisplay:10.37,2013-02-02 06:57:00,
2013-02-02 01:59:00,18.5,6.2,30.01,NNE,22,0.0,0.0,58,0.00,CLR,,0.00,WeatherDisplay:10.37,2013-02-02 06:59:00,
2013-02-02 02:02:00,18.5,6.2,30.01,WNW,292,0.0,0.0,58,0.00,CLR,,0.00,WeatherDisplay:10.37,2013-02-02 07:02:00,
2013-02-02 02:04:00,18.3,6.7,30.01,NW,315,0.0,0.0,60,0.00,CLR,,0.00,WeatherDisplay:10.37,2013-02-02 07:04:00,
2013-02-02 02:07:00,18.3,7.1,30.01,NNE,22,0.0,0.0,61,0.00,CLR,,0.00,WeatherDisplay:10.37,2013-02-02 07:07:00,
2013-02-02 02:09:00,18.3,7.5,30.01,NNW,338,0.0,0.0,62,0.00,CLR,,0.00,WeatherDisplay:10.37,2013-02-02 07:09:00,
2013-02-02 02:13:00,18.1,8.3,30.01,North,0,0.0,0.0,65,0.00,CLR,,0.00,WeatherDisplay:10.37,2013-02-02 07:13:00,
2013-02-02 02:14:00,18.1,8.7,30.01,NNW,338,0.0,0.0,66,0.00,CLR,,0.00,WeatherDisplay:10.37,2013-02-02 07:14:00,
2013-02-02 02:18:00,18.1,9.0,30.01,NNE,22,0.0,0.0,67,0.00,CLR,,0.00,WeatherDisplay:10.37,2013-02-02 07:18:00,
2013-02-02 02:19:00,18.0,9.2,30.01,NW,315,0.0,0.0,68,0.00,CLR,,0.00,WeatherDisplay:10.37,2013-02-02 07:19:00,
2013-02-02 02:23:00,18.0,9.5,30.01,NNW,338,0.0,0.0,69,0.00,CLR,,0.00,WeatherDisplay:10.37,2013-02-02 07:23:00,
2013-02-02 02:24:00,18.0,9.5,30.01,WNW,292,0.0,0.0,69,0.00,CLR,,0.00,WeatherDisplay:10.37,2013-02-02 07:24:00,
2013-02-02 02:28:00,17.8,9.6,30.01,NW,315,0.0,0.0,70,0.00,CLR,,0.00,WeatherDisplay:10.37,2013-02-02 07:28:00,
2013-02-02 02:29:00,17.8,9.6,30.01,NNW,338,0.0,0.0,70,0.00,CLR,,0.00,WeatherDisplay:10.37,2013-02-02 07:29:00,
2013-02-02 02:33:00,17.8,10.3,30.01,West,270,0.0,0.0,72,0.00,CLR,,0.00,WeatherDisplay:10.37,2013-02-02 07:33:00,
2013-02-02 02:34:00,17.8,10.3,30.01,West,270,0.0,0.0,72,0.00,CLR,,0.00,WeatherDisplay:10.37,2013-02-02 07:34:00,
2013-02-02 02:38:00,17.8,10.3,30.01,WNW,292,0.0,0.0,72,0.00,CLR,,0.00,WeatherDisplay:10.37,2013-02-02 07:38:00,
2013-02-02 02:39:00,17.8,10.3,30.01,WNW,292,0.0,0.0,72,0.00,CLR,,0.00,WeatherDisplay:10.37,2013-02-02 07:39:00,
2013-02-02 02:43:00,17.6,10.7,30.01,NNW,338,0.0,0.0,74,0.00,CLR,,0.00,WeatherDisplay:10.37,2013-02-02 07:43:00,
2013-02-02 02:44:00,17.6,10.7,30.01,West,270,0.0,0.0,74,0.00,CLR,,0.00,WeatherDisplay:10.37,2013-02-02 07:44:00,
2013-02-02 02:45:00,17.6,10.7,30.01,West,270,0.0,0.0,74,0.00,CLR,,0.00,WeatherDisplay:10.37,2013-02-02 07:45:00,
2013-02-02 02:48:00,17.4,10.5,30.01,West,270,0.0,0.0,74,0.00,CLR,,0.00,WeatherDisplay:10.37,2013-02-02 07:48:00,
2013-02-02 02:49:00,17.1,10.2,30.01,WNW,292,0.0,0.0,74,0.00,CLR,,0.00,WeatherDisplay:10.37,2013-02-02 07:49:00,
2013-02-02 02:50:00,17.1,10.2,30.01,WSW,248,0.0,0.0,74,0.00,CLR,,0.00,WeatherDisplay:10.37,2013-02-02 07:50:00,
2013-02-02 02:53:00,17.1,9.9,30.01,WSW,248,0.0,0.0,73,0.00,CLR,,0.00,WeatherDisplay:10.37,2013-02-02 07:53:00,
2013-02-02 02:54:00,16.9,10.0,30.01,WNW,292,0.0,0.0,74,0.00,CLR,,0.00,WeatherDisplay:10.37,2013-02-02 07:54:00,
2013-02-02 02:55:00,16.9,10.0,30.01,WNW,292,0.0,0.0,74,0.00,CLR,,0.00,WeatherDisplay:10.37,2013-02-02 07:55:00,
2013-02-02 02:59:00,16.7,9.8,30.01,WNW,292,0.0,0.0,74,0.00,CLR,,0.00,WeatherDisplay:10.37,2013-02-02 07:59:00,
2013-02-02 03:00:00,16.7,9.8,30.01,WNW,292,0.0,0.0,74,0.00,CLR,,0.00,WeatherDisplay:10.37,2013-02-02 08:00:00,
2013-02-02 03:05:00,16.5,9.7,30.01,WNW,292,0.0,0.0,74,0.00,CLR,,0.00,WeatherDisplay:10.37,2013-02-02 08:05:00,
2013-02-02 03:06:00,16.5,9.7,30.01,West,270,0.0,0.0,74,0.00,CLR,,0.00,WeatherDisplay:10.37,2013-02-02 08:06:00,
2013-02-02 03:11:00,16.0,9.2,30.01,NW,315,0.0,0.0,74,0.00,CLR,,0.00,WeatherDisplay:10.37,2013-02-02 08:11:00,
2013-02-02 03:16:00,15.8,9.6,30.01,West,270,0.0,0.0,76,0.00,CLR,,0.00,WeatherDisplay:10.37,2013-02-02 08:16:00,
2013-02-02 03:21:00,15.8,9.9,30.01,West,270,0.0,0.0,77,0.00,CLR,,0.00,WeatherDisplay:10.37,2013-02-02 08:21:00,
2013-02-02 03:26:00,15.8,10.2,29.99,NNW,338,0.0,0.0,78,0.00,CLR,,0.00,WeatherDisplay:10.37,2013-02-02 08:26:00,
2013-02-02 03:27:00,15.8,10.2,29.99,WNW,292,0.0,0.0,78,0.00,CLR,,0.00,WeatherDisplay:10.37,2013-02-02 08:27:00,
2013-02-02 03:31:00,15.8,10.4,29.99,WSW,248,0.0,0.0,79,0.00,CLR,,0.00,WeatherDisplay:10.37,2013-02-02 08:31:00,
2013-02-02 03:32:00,15.8,10.4,29.99,WSW,248,0.0,0.0,79,0.00,CLR,,0.00,WeatherDisplay:10.37,2013-02-02 08:32:00,
2013-02-02 03:36:00,15.8,10.7,29.99,WSW,248,0.0,0.0,80,0.00,CLR,,0.00,WeatherDisplay:10.37,2013-02-02 08:36:00,
2013-02-02 03:37:00,15.8,10.7,29.99,WNW,292,0.0,0.0,80,0.00,CLR,,0.00,WeatherDisplay:10.37,2013-02-02 08:37:00,
2013-02-02 03:41:00,15.8,10.7,29.99,NW,315,0.0,0.0,80,0.00,CLR,,0.00,WeatherDisplay:10.37,2013-02-02 08:41:00,
2013-02-02 03:42:00,15.8,10.7,29.99,SSW,202,0.0,0.0,80,0.00,CLR,,0.00,WeatherDisplay:10.37,2013-02-02 08:42:00,
2013-02-02 03:46:00,15.8,10.7,29.99,WNW,292,0.0,0.0,80,0.00,CLR,,0.00,WeatherDisplay:10.37,2013-02-02 08:46:00,
2013-02-02 03:47:00,15.8,10.7,29.99,West,270,0.0,0.0,80,0.00,CLR,,0.00,WeatherDisplay:10.37,2013-02-02 08:47:00,
2013-02-02 03:51:00,15.8,10.4,29.99,West,270,0.0,0.0,79,0.00,CLR,,0.00,WeatherDisplay:10.37,2013-02-02 08:51:00,
2013-02-02 03:52:00,15.8,10.4,29.99,SSW,202,0.0,0.0,79,0.00,CLR,,0.00,WeatherDisplay:10.37,2013-02-02 08:52:00,
2013-02-02 03:53:00,15.8,10.4,29.99,NNW,338,0.0,0.0,79,0.00,CLR,,0.00,WeatherDisplay:10.37,2013-02-02 08:53:00,
2013-02-02 03:56:00,15.8,10.2,29.99,NNW,338,0.0,0.0,78,0.00,CLR,,0.00,WeatherDisplay:10.37,2013-02-02 08:56:00,
2013-02-02 03:57:00,15.8,10.2,29.99,NNE,22,0.0,0.0,78,0.00,CLR,,0.00,WeatherDisplay:10.37,2013-02-02 08:57:00,
2013-02-02 03:58:00,15.8,9.9,29.99,WNW,292,0.0,0.0,77,0.00,CLR,,0.00,WeatherDisplay:10.37,2013-02-02 08:58:00,
2013-02-02 04:01:00,15.8,9.6,29.99,West,270,0.0,0.0,76,0.00,CLR,,0.00,WeatherDisplay:10.37,2013-02-02 09:01:00,
2013-02-02 04:02:00,15.8,9.3,29.99,NNW,338,0.0,0.0,75,0.00,CLR,,0.00,WeatherDisplay:10.37,2013-02-02 09:02:00,
2013-02-02 04:03:00,15.8,9.3,29.99,SW,225,0.0,0.0,75,0.00,CLR,,0.00,WeatherDisplay:10.37,2013-02-02 09:03:00,
2013-02-02 04:06:00,15.8,9.0,29.99,NW,315,0.0,0.0,74,0.00,CLR,,0.00,WeatherDisplay:10.37,2013-02-02 09:06:00,
2013-02-02 04:07:00,15.8,9.0,29.99,WNW,292,0.0,0.0,74,0.00,CLR,,0.00,WeatherDisplay:10.37,2013-02-02 09:07:00,
2013-02-02 04:08:00,15.8,9.0,29.99,West,270,0.0,0.0,74,0.00,CLR,,0.00,WeatherDisplay:10.37,2013-02-02 09:08:00,
2013-02-02 04:11:00,15.8,8.7,29.99,NNE,22,0.0,0.0,73,0.00,CLR,,0.00,WeatherDisplay:10.37,2013-02-02 09:11:00,
2013-02-02 04:12:00,15.8,8.4,29.99,SW,225,0.0,0.0,72,0.00,CLR,,0.00,WeatherDisplay:10.37,2013-02-02 09:12:00,
2013-02-02 04:13:00,15.8,8.4,29.99,NNW,338,0.0,0.0,72,0.00,CLR,,0.00,WeatherDisplay:10.37,2013-02-02 09:13:00,
2013-02-02 04:16:00,15.8,8.4,29.99,WNW,292,0.0,0.0,72,0.00,CLR,,0.00,WeatherDisplay:10.37,2013-02-02 09:16:00,
2013-02-02 04:17:00,15.8,8.1,29.99,SSW,202,0.0,0.0,71,0.00,CLR,,0.00,WeatherDisplay:10.37,2013-02-02 09:17:00,
2013-02-02 04:19:00,15.8,8.1,29.99,WNW,292,0.0,0.0,71,0.00,CLR,,0.00,WeatherDisplay:10.37,2013-02-02 09:19:00,
2013-02-02 04:21:00,15.8,7.7,29.99,NW,315,0.0,0.0,70,0.00,CLR,,0.00,WeatherDisplay:10.37,2013-02-02 09:21:00,
2013-02-02 04:22:00,15.8,7.7,29.99,NNW,338,0.0,0.0,70,0.00,CLR,,0.00,WeatherDisplay:10.37,2013-02-02 09:22:00,
2013-02-02 04:24:00,15.8,7.1,29.99,WNW,292,0.0,0.0,68,0.00,CLR,,0.00,WeatherDisplay:10.37,2013-02-02 09:24:00,
2013-02-02 04:27:00,15.8,7.1,29.99,WNW,292,0.0,0.0,68,0.00,CLR,,0.00,WeatherDisplay:10.37,2013-02-02 09:27:00,
2013-02-02 04:29:00,15.8,7.1,29.99,WSW,248,0.0,0.0,68,0.00,CLR,,0.00,WeatherDisplay:10.37,2013-02-02 09:29:00,
2013-02-02 04:32:00,15.8,6.8,29.99,NNE,22,0.0,0.0,67,0.00,CLR,,0.00,WeatherDisplay:10.37,2013-02-02 09:32:00,
2013-02-02 04:34:00,15.8,6.4,29.99,NNW,338,0.0,0.0,66,0.00,CLR,,0.00,WeatherDisplay:10.37,2013-02-02 09:34:00,
2013-02-02 04:37:00,16.0,5.9,29.99,WNW,292,0.0,0.0,64,0.00,CLR,,0.00,WeatherDisplay:10.37,2013-02-02 09:37:00,
2013-02-02 04:38:00,16.0,5.9,29.99,North,0,0.0,0.0,64,0.00,CLR,,0.00,WeatherDisplay:10.37,2013-02-02 09:38:00,
2013-02-02 04:39:00,16.0,5.9,29.99,WNW,292,0.0,0.0,64,0.00,CLR,,0.00,WeatherDisplay:10.37,2013-02-02 09:39:00,
2013-02-02 04:42:00,16.0,5.9,29.99,NNW,338,0.0,0.0,64,0.00,CLR,,0.00,WeatherDisplay:10.37,2013-02-02 09:42:00,
2013-02-02 04:43:00,16.0,5.9,29.99,West,270,0.0,0.0,64,0.00,CLR,,0.00,WeatherDisplay:10.37,2013-02-02 09:43:00,
2013-02-02 04:44:00,16.0,5.9,29.99,NW,315,0.0,0.0,64,0.00,CLR,,0.00,WeatherDisplay:10.37,2013-02-02 09:44:00,
2013-02-02 04:47:00,16.0,5.6,29.99,NNW,338,0.0,0.0,63,0.00,CLR,,0.00,WeatherDisplay:10.37,2013-02-02 09:47:00,
2013-02-02 04:48:00,16.0,5.6,29.99,NNW,338,0.0,0.0,63,0.00,CLR,,0.00,WeatherDisplay:10.37,2013-02-02 09:48:00,
2013-02-02 04:49:00,16.0,5.6,29.99,NNW,338,0.0,0.0,63,0.00,CLR,,0.00,WeatherDisplay:10.37,2013-02-02 09:49:00,
2013-02-02 04:52:00,16.0,5.2,29.99,NNW,338,0.0,0.0,62,0.00,CLR,,0.00,WeatherDisplay:10.37,2013-02-02 09:52:00,
2013-02-02 04:53:00,16.0,5.2,29.99,West,270,0.0,0.0,62,0.00,CLR,,0.00,WeatherDisplay:10.37,2013-02-02 09:53:00,
2013-02-02 04:54:00,16.0,5.2,29.99,NW,315,0.0,0.0,62,0.00,CLR,,0.00,WeatherDisplay:10.37,2013-02-02 09:54:00,
2013-02-02 04:55:00,16.0,5.2,29.99,West,270,0.0,0.0,62,0.00,CLR,,0.00,WeatherDisplay:10.37,2013-02-02 09:55:00,
2013-02-02 04:57:00,16.0,5.2,29.99,NNW,338,0.0,0.0,62,0.00,CLR,,0.00,WeatherDisplay:10.37,2013-02-02 09:57:00,
2013-02-02 04:58:00,16.0,5.2,29.99,WNW,292,0.0,0.0,62,0.00,CLR,,0.00,WeatherDisplay:10.37,2013-02-02 09:58:00,
2013-02-02 04:59:00,16.0,4.9,29.99,WNW,292,0.0,0.0,61,0.00,CLR,,0.00,WeatherDisplay:10.37,2013-02-02 09:59:00,
2013-02-02 05:00:00,16.0,4.9,29.99,NNW,338,0.0,0.0,61,0.00,CLR,,0.00,WeatherDisplay:10.37,2013-02-02 10:00:00,
2013-02-02 05:02:00,16.0,4.9,29.99,NNW,338,0.0,0.0,61,0.00,CLR,,0.00,WeatherDisplay:10.37,2013-02-02 10:02:00,
2013-02-02 05:03:00,16.0,5.2,29.99,WNW,292,0.0,0.0,62,0.00,CLR,,0.00,WeatherDisplay:10.37,2013-02-02 10:03:00,
2013-02-02 05:04:00,16.0,5.2,29.99,NNW,338,0.0,0.0,62,0.00,CLR,,0.00,WeatherDisplay:10.37,2013-02-02 10:04:00,
2013-02-02 05:05:00,16.0,5.2,29.99,NNW,338,0.0,0.0,62,0.00,CLR,,0.00,WeatherDisplay:10.37,2013-02-02 10:05:00,
2013-02-02 05:07:00,16.0,5.2,29.99,North,0,0.0,0.0,62,0.00,CLR,,0.00,WeatherDisplay:10.37,2013-02-02 10:07:00,
2013-02-02 05:08:00,16.0,5.2,29.99,NNW,338,0.0,0.0,62,0.00,CLR,,0.00,WeatherDisplay:10.37,2013-02-02 10:08:00,
2013-02-02 05:09:00,16.0,5.2,29.99,WNW,292,0.0,0.0,62,0.00,CLR,,0.00,WeatherDisplay:10.37,2013-02-02 10:09:00,
2013-02-02 05:10:00,16.0,5.2,29.99,WNW,292,0.0,0.0,62,0.00,CLR,,0.00,WeatherDisplay:10.37,2013-02-02 10:10:00,
2013-02-02 05:12:00,15.8,5.1,29.99,West,270,0.0,0.0,62,0.00,CLR,,0.00,WeatherDisplay:10.37,2013-02-02 10:12:00,
2013-02-02 05:13:00,15.8,5.1,29.99,WSW,248,0.0,0.0,62,0.00,CLR,,0.00,WeatherDisplay:10.37,2013-02-02 10:13:00,
2013-02-02 05:14:00,15.8,5.1,29.99,WSW,248,0.0,0.0,62,0.00,CLR,,0.00,WeatherDisplay:10.37,2013-02-02 10:14:00,
2013-02-02 05:15:00,15.8,5.4,29.99,NNW,338,0.0,0.0,63,0.00,CLR,,0.00,WeatherDisplay:10.37,2013-02-02 10:15:00,
2013-02-02 05:17:00,16.0,5.2,29.99,WNW,292,0.0,0.0,62,0.00,CLR,,0.00,WeatherDisplay:10.37,2013-02-02 10:17:00,
2013-02-02 05:18:00,16.0,5.2,29.99,NNW,338,0.0,0.0,62,0.00,CLR,,0.00,WeatherDisplay:10.37,2013-02-02 10:18:00,
2013-02-02 05:19:00,16.0,5.2,29.99,WSW,248,0.0,0.0,62,0.00,CLR,,0.00,WeatherDisplay:10.37,2013-02-02 10:19:00,
2013-02-02 05:21:00,16.0,5.2,29.99,NW,315,0.0,0.0,62,0.00,CLR,,0.00,WeatherDisplay:10.37,2013-02-02 10:21:00,
2013-02-02 05:22:00,16.0,4.5,29.99,NNE,22,0.0,0.0,60,0.00,CLR,,0.00,WeatherDisplay:10.37,2013-02-02 10:22:00,
2013-02-02 05:24:00,16.2,4.3,29.99,WSW,248,0.0,0.0,59,0.00,CLR,,0.00,WeatherDisplay:10.37,2013-02-02 10:24:00,
2013-02-02 05:26:00,16.2,4.3,29.99,NE,45,0.0,0.0,59,0.00,CLR,,0.00,WeatherDisplay:10.37,2013-02-02 10:26:00,
2013-02-02 05:27:00,16.2,4.3,29.99,WNW,292,0.0,0.0,59,0.00,CLR,,0.00,WeatherDisplay:10.37,2013-02-02 10:27:00,
2013-02-02 05:29:00,16.3,3.7,29.99,NW,315,0.0,0.0,57,0.00,CLR,,0.00,WeatherDisplay:10.37,2013-02-02 10:29:00,
2013-02-02 05:30:00,16.3,3.7,29.99,NW,315,0.0,0.0,57,0.00,CLR,,0.00,WeatherDisplay:10.37,2013-02-02 10:30:00,
2013-02-02 05:31:00,16.5,3.9,29.99,West,270,0.0,0.0,57,0.00,CLR,,0.00,WeatherDisplay:10.37,2013-02-02 10:31:00,
2013-02-02 05:32:00,16.5,3.9,29.99,SSW,202,0.0,0.0,57,0.00,CLR,,0.00,WeatherDisplay:10.37,2013-02-02 10:32:00,
2013-02-02 05:34:00,16.5,3.9,29.99,ESE,112,0.0,0.0,57,0.00,CLR,,0.00,WeatherDisplay:10.37,2013-02-02 10:34:00,
2013-02-02 05:35:00,16.5,3.9,29.99,WNW,292,0.0,0.0,57,0.00,CLR,,0.00,WeatherDisplay:10.37,2013-02-02 10:35:00,
2013-02-02 05:36:00,16.5,3.5,29.99,NW,315,0.0,0.0,56,0.00,CLR,,0.00,WeatherDisplay:10.37,2013-02-02 10:36:00,
2013-02-02 05:37:00,16.5,3.5,29.95,NNW,338,0.0,0.0,56,0.00,CLR,,0.00,WeatherDisplay:10.37,2013-02-02 10:37:00,
2013-02-02 05:40:00,16.5,3.5,29.95,NW,315,0.0,0.0,56,0.00,CLR,,0.00,WeatherDisplay:10.37,2013-02-02 10:40:00,
2013-02-02 05:41:00,16.5,3.5,29.95,NNW,338,0.0,0.0,56,0.00,CLR,,0.00,WeatherDisplay:10.37,2013-02-02 10:41:00,
2013-02-02 05:42:00,16.5,3.5,29.95,WNW,292,0.0,0.0,56,0.00,CLR,,0.00,WeatherDisplay:10.37,2013-02-02 10:42:00,
2013-02-02 05:45:00,16.5,3.5,29.95,NNW,338,0.0,0.0,56,0.00,CLR,,0.00,WeatherDisplay:10.37,2013-02-02 10:45:00,
2013-02-02 05:46:00,16.5,3.1,29.95,North,0,0.0,0.0,55,0.00,CLR,,0.00,WeatherDisplay:10.37,2013-02-02 10:46:00,
2013-02-02 05:47:00,16.5,3.1,29.95,West,270,0.0,0.0,55,0.00,CLR,,0.00,WeatherDisplay:10.37,2013-02-02 10:47:00,
2013-02-02 05:50:00,16.5,3.5,29.95,West,270,0.0,0.0,56,0.00,CLR,,0.00,WeatherDisplay:10.37,2013-02-02 10:50:00,
2013-02-02 05:51:00,16.5,3.5,29.99,WNW,292,0.0,0.0,56,0.00,CLR,,0.00,WeatherDisplay:10.37,2013-02-02 10:51:00,
2013-02-02 05:53:00,16.5,3.5,29.99,NW,315,0.0,0.0,56,0.00,CLR,,0.00,WeatherDisplay:10.37,2013-02-02 10:53:00,
2013-02-02 05:55:00,16.5,3.5,29.99,NNW,338,0.0,0.0,56,0.00,CLR,,0.00,WeatherDisplay:10.37,2013-02-02 10:55:00,
2013-02-02 05:56:00,16.3,3.7,29.99,WNW,292,0.0,0.0,57,0.00,CLR,,0.00,WeatherDisplay:10.37,2013-02-02 10:56:00,
2013-02-02 05:58:00,16.3,3.7,29.99,ENE,68,0.0,0.0,57,0.00,CLR,,0.00,WeatherDisplay:10.37,2013-02-02 10:58:00,
2013-02-02 06:00:00,16.3,3.7,29.99,NNW,338,0.0,0.0,57,0.00,CLR,,0.00,WeatherDisplay:10.37,2013-02-02 11:00:00,
2013-02-02 06:01:00,16.3,3.7,29.99,West,270,0.0,0.0,57,0.00,CLR,,0.00,WeatherDisplay:10.37,2013-02-02 11:01:00,
2013-02-02 06:03:00,16.3,3.7,29.99,WNW,292,0.0,0.0,57,0.00,CLR,,0.00,WeatherDisplay:10.37,2013-02-02 11:03:00,
2013-02-02 06:05:00,16.3,3.7,29.99,NNE,22,0.0,0.0,57,0.00,CLR,,0.00,WeatherDisplay:10.37,2013-02-02 11:05:00,
2013-02-02 06:07:00,16.3,4.1,29.99,North,0,0.0,0.0,58,0.00,CLR,,0.00,WeatherDisplay:10.37,2013-02-02 11:07:00,
2013-02-02 06:08:00,16.2,4.0,29.99,NW,315,0.0,0.0,58,0.00,CLR,,0.00,WeatherDisplay:10.37,2013-02-02 11:08:00,
2013-02-02 06:10:00,16.2,4.0,29.99,NNW,338,0.0,0.0,58,0.00,CLR,,0.00,WeatherDisplay:10.37,2013-02-02 11:10:00,
2013-02-02 06:12:00,16.2,4.3,29.99,WNW,292,0.0,0.0,59,0.00,CLR,,0.00,WeatherDisplay:10.37,2013-02-02 11:12:00,
2013-02-02 06:13:00,16.2,4.3,29.99,WSW,248,0.0,0.0,59,0.00,CLR,,0.00,WeatherDisplay:10.37,2013-02-02 11:13:00,
2013-02-02 06:15:00,16.2,4.3,29.99,West,270,0.0,0.0,59,0.00,CLR,,0.00,WeatherDisplay:10.37,2013-02-02 11:15:00,
2013-02-02 06:17:00,16.0,4.2,29.99,NNE,22,0.0,0.0,59,0.00,CLR,,0.00,WeatherDisplay:10.37,2013-02-02 11:17:00,
2013-02-02 06:18:00,16.0,4.2,29.99,North,0,0.0,0.0,59,0.00,CLR,,0.00,WeatherDisplay:10.37,2013-02-02 11:18:00,
2013-02-02 06:20:00,16.0,4.5,29.99,WNW,292,0.0,0.0,60,0.00,CLR,,0.00,WeatherDisplay:10.37,2013-02-02 11:20:00,
2013-02-02 06:21:00,16.0,4.5,29.99,West,270,0.0,0.0,60,0.00,CLR,,0.00,WeatherDisplay:10.37,2013-02-02 11:21:00,
2013-02-02 06:22:00,16.0,4.5,29.99,WNW,292,0.0,0.0,60,0.00,CLR,,0.00,WeatherDisplay:10.37,2013-02-02 11:22:00,
2013-02-02 06:23:00,16.0,4.5,29.99,WNW,292,0.0,0.0,60,0.00,CLR,,0.00,WeatherDisplay:10.37,2013-02-02 11:23:00,
2013-02-02 06:25:00,16.0,4.5,29.99,NW,315,0.0,0.0,60,0.00,CLR,,0.00,WeatherDisplay:10.37,2013-02-02 11:25:00,
2013-02-02 06:26:00,16.0,4.5,29.99,NW,315,0.0,0.0,60,0.00,CLR,,0.00,WeatherDisplay:10.37,2013-02-02 11:26:00,
2013-02-02 06:27:00,16.0,4.5,29.99,NNW,338,0.0,0.0,60,0.00,CLR,,0.00,WeatherDisplay:10.37,2013-02-02 11:27:00,
2013-02-02 06:29:00,16.0,4.5,29.99,NW,315,0.0,0.0,60,0.00,CLR,,0.00,WeatherDisplay:10.37,2013-02-02 11:29:00,
2013-02-02 06:31:00,16.0,4.5,29.99,WNW,292,0.0,0.0,60,0.00,CLR,,0.00,WeatherDisplay:10.37,2013-02-02 11:31:00,
2013-02-02 06:32:00,16.0,4.5,29.99,NNE,22,0.0,0.0,60,0.00,CLR,,0.00,WeatherDisplay:10.37,2013-02-02 11:32:00,
2013-02-02 06:34:00,16.0,4.2,29.99,North,0,0.0,0.0,59,0.00,CLR,,0.00,WeatherDisplay:10.37,2013-02-02 11:34:00,
2013-02-02 06:36:00,16.0,4.2,29.99,West,270,0.0,0.0,59,0.00,CLR,,0.00,WeatherDisplay:10.37,2013-02-02 11:36:00,
2013-02-02 06:37:00,16.0,4.2,29.99,WNW,292,0.0,0.0,59,0.00,CLR,,0.00,WeatherDisplay:10.37,2013-02-02 11:37:00,
2013-02-02 06:39:00,16.0,4.2,29.99,NNW,338,0.0,0.0,59,0.00,CLR,,0.00,WeatherDisplay:10.37,2013-02-02 11:39:00,
2013-02-02 06:41:00,16.0,4.2,29.99,NW,315,0.0,0.0,59,0.00,CLR,,0.00,WeatherDisplay:10.37,2013-02-02 11:41:00,
2013-02-02 06:43:00,16.0,4.2,29.99,SSW,202,0.0,0.0,59,0.00,CLR,,0.00,WeatherDisplay:10.37,2013-02-02 11:43:00,
2013-02-02 06:44:00,16.0,4.2,29.99,WNW,292,0.0,0.0,59,0.00,CLR,,0.00,WeatherDisplay:10.37,2013-02-02 11:44:00,
2013-02-02 06:46:00,16.0,4.2,29.99,WNW,292,0.0,0.0,59,0.00,CLR,,0.00,WeatherDisplay:10.37,2013-02-02 11:46:00,
2013-02-02 06:48:00,16.0,3.8,29.99,NW,315,0.0,0.0,58,0.00,CLR,,0.00,WeatherDisplay:10.37,2013-02-02 11:48:00,
2013-02-02 06:49:00,16.0,3.8,29.99,NW,315,0.0,0.0,58,0.00,CLR,,0.00,WeatherDisplay:10.37,2013-02-02 11:49:00,
2013-02-02 06:51:00,16.0,3.8,29.99,NNW,338,0.0,0.0,58,0.00,CLR,,0.00,WeatherDisplay:10.37,2013-02-02 11:51:00,
2013-02-02 06:53:00,16.0,3.8,29.99,NNW,338,0.0,0.0,58,0.00,CLR,,0.00,WeatherDisplay:10.37,2013-02-02 11:53:00,
2013-02-02 06:54:00,16.0,3.4,29.99,NNW,338,0.0,0.0,57,0.00,CLR,,0.00,WeatherDisplay:10.37,2013-02-02 11:54:00,
2013-02-02 06:56:00,16.0,3.4,29.99,West,270,0.0,0.0,57,0.00,CLR,,0.00,WeatherDisplay:10.37,2013-02-02 11:56:00,
2013-02-02 06:59:00,16.0,3.4,29.99,WNW,292,0.0,0.0,57,0.00,CLR,,0.00,WeatherDisplay:10.37,2013-02-02 11:59:00,
2013-02-02 07:01:00,16.0,3.4,29.99,NNW,338,0.0,0.0,57,0.00,CLR,,0.00,WeatherDisplay:10.37,2013-02-02 12:01:00,
2013-02-02 07:02:00,16.0,3.0,29.99,NW,315,0.0,0.0,56,0.00,CLR,,0.00,WeatherDisplay:10.37,2013-02-02 12:02:00,
2013-02-02 07:04:00,16.0,3.0,29.99,SSW,202,0.0,0.0,56,0.00,CLR,,0.00,WeatherDisplay:10.37,2013-02-02 12:04:00,
2013-02-02 07:05:00,16.0,3.0,29.99,WNW,292,0.0,0.0,56,0.00,CLR,,0.00,WeatherDisplay:10.37,2013-02-02 12:05:00,
2013-02-02 07:07:00,16.0,3.0,29.99,WNW,292,0.0,0.0,56,0.00,CLR,,0.00,WeatherDisplay:10.37,2013-02-02 12:07:00,
2013-02-02 07:09:00,16.0,3.0,29.99,NW,315,0.0,0.0,56,0.00,CLR,,0.00,WeatherDisplay:10.37,2013-02-02 12:09:00,
2013-02-02 07:10:00,16.0,3.0,29.99,ENE,68,0.0,0.0,56,0.00,CLR,,0.00,WeatherDisplay:10.37,2013-02-02 12:10:00,
2013-02-02 07:12:00,15.8,2.9,29.99,NNW,338,0.0,0.0,56,0.00,CLR,,0.00,WeatherDisplay:10.37,2013-02-02 12:12:00,
2013-02-02 07:14:00,16.0,3.0,29.99,West,270,0.0,0.0,56,0.00,CLR,,0.00,WeatherDisplay:10.37,2013-02-02 12:14:00,
2013-02-02 07:15:00,15.8,2.9,29.99,North,0,0.0,0.0,56,0.00,CLR,,0.00,WeatherDisplay:10.37,2013-02-02 12:15:00,
2013-02-02 07:17:00,16.0,2.6,29.99,WNW,292,0.0,0.0,55,0.00,CLR,,0.00,WeatherDisplay:10.37,2013-02-02 12:17:00,
2013-02-02 07:19:00,16.0,2.6,29.99,North,0,0.0,0.0,55,0.00,CLR,,0.00,WeatherDisplay:10.37,2013-02-02 12:19:00,
2013-02-02 07:20:00,16.0,2.6,29.99,WNW,292,0.0,0.0,55,0.00,CLR,,0.00,WeatherDisplay:10.37,2013-02-02 12:20:00,
2013-02-02 07:22:00,15.8,2.9,29.99,WSW,248,0.0,0.0,56,0.00,CLR,,0.00,WeatherDisplay:10.37,2013-02-02 12:22:00,
2013-02-02 07:24:00,15.8,2.5,29.99,WSW,248,0.0,0.0,55,0.00,CLR,,0.00,WeatherDisplay:10.37,2013-02-02 12:24:00,
2013-02-02 07:25:00,15.8,2.5,29.99,West,270,0.0,0.0,55,0.00,CLR,,0.00,WeatherDisplay:10.37,2013-02-02 12:25:00,
2013-02-02 07:27:00,15.8,2.5,29.99,NW,315,0.0,0.0,55,0.00,CLR,,0.00,WeatherDisplay:10.37,2013-02-02 12:27:00,
2013-02-02 07:29:00,15.8,2.5,29.99,WNW,292,0.0,0.0,55,0.00,CLR,,0.00,WeatherDisplay:10.37,2013-02-02 12:29:00,
2013-02-02 07:30:00,15.8,2.5,29.99,NW,315,0.0,0.0,55,0.00,CLR,,0.00,WeatherDisplay:10.37,2013-02-02 12:30:00,
2013-02-02 07:32:00,15.8,2.5,29.99,NNW,338,0.0,0.0,55,0.00,CLR,,0.00,WeatherDisplay:10.37,2013-02-02 12:32:00,
2013-02-02 07:34:00,15.8,2.1,29.99,NNW,338,0.0,0.0,54,0.00,CLR,,0.00,WeatherDisplay:10.37,2013-02-02 12:34:00,
2013-02-02 07:35:00,15.8,2.1,29.99,WNW,292,0.0,0.0,54,0.00,CLR,,0.00,WeatherDisplay:10.37,2013-02-02 12:35:00,
2013-02-02 07:37:00,15.8,2.1,29.99,NW,315,0.0,0.0,54,0.00,CLR,,0.00,WeatherDisplay:10.37,2013-02-02 12:37:00,
2013-02-02 07:39:00,15.8,2.1,29.99,SE,135,0.0,0.0,54,0.00,CLR,,0.00,WeatherDisplay:10.37,2013-02-02 12:39:00,
2013-02-02 07:40:00,15.8,2.1,29.99,NNW,338,0.0,0.0,54,0.00,CLR,,0.00,WeatherDisplay:10.37,2013-02-02 12:40:00,
2013-02-02 07:42:00,16.0,1.8,29.99,NW,315,0.0,0.0,53,0.00,CLR,,0.00,WeatherDisplay:10.37,2013-02-02 12:42:00,
2013-02-02 07:44:00,16.0,1.8,29.99,NNW,338,0.0,0.0,53,0.00,CLR,,0.00,WeatherDisplay:10.37,2013-02-02 12:44:00,
2013-02-02 07:45:00,16.0,1.8,29.99,NNW,338,0.0,0.0,53,0.00,CLR,,0.00,WeatherDisplay:10.37,2013-02-02 12:45:00,
2013-02-02 07:47:00,16.0,1.4,29.99,NW,315,0.0,0.0,52,0.00,CLR,,0.00,WeatherDisplay:10.37,2013-02-02 12:47:00,
2013-02-02 07:48:00,16.0,1.4,29.99,ESE,112,0.0,0.0,52,0.00,CLR,,0.00,WeatherDisplay:10.37,2013-02-02 12:48:00,
2013-02-02 07:50:00,16.0,1.4,29.99,WNW,292,0.0,0.0,52,0.00,CLR,,0.00,WeatherDisplay:10.37,2013-02-02 12:50:00,
2013-02-02 07:51:00,16.0,1.4,29.99,SSW,202,0.0,0.0,52,0.00,CLR,,0.00,WeatherDisplay:10.37,2013-02-02 12:51:00,
2013-02-02 07:52:00,16.0,1.8,29.95,NE,45,0.0,0.0,53,0.00,CLR,,0.00,WeatherDisplay:10.37,2013-02-02 12:52:00,
2013-02-02 07:53:00,16.0,1.8,29.95,NE,45,0.0,0.0,53,0.00,CLR,,0.00,WeatherDisplay:10.37,2013-02-02 12:53:00,
2013-02-02 07:55:00,16.0,1.8,29.95,East,90,0.0,0.0,53,0.00,CLR,,0.00,WeatherDisplay:10.37,2013-02-02 12:55:00,
2013-02-02 07:56:00,16.2,2.0,29.95,WNW,292,0.0,0.0,53,0.00,CLR,,0.00,WeatherDisplay:10.37,2013-02-02 12:56:00,
2013-02-02 07:57:00,16.0,2.2,29.95,West,270,0.0,0.0,54,0.00,CLR,,0.00,WeatherDisplay:10.37,2013-02-02 12:57:00,
2013-02-02 07:58:00,16.0,2.2,29.95,WNW,292,0.0,0.0,54,0.00,CLR,,0.00,WeatherDisplay:10.37,2013-02-02 12:58:00,
2013-02-02 08:00:00,16.0,2.2,29.95,NNE,22,0.0,0.0,54,0.00,CLR,,0.00,WeatherDisplay:10.37,2013-02-02 13:00:00,
2013-02-02 08:02:00,16.2,2.4,29.95,West,270,0.0,0.0,54,0.00,CLR,,0.00,WeatherDisplay:10.37,2013-02-02 13:02:00,
2013-02-02 08:03:00,16.0,2.2,29.95,NW,315,0.0,0.0,54,0.00,CLR,,0.00,WeatherDisplay:10.37,2013-02-02 13:03:00,
2013-02-02 08:05:00,16.0,2.2,29.95,WNW,292,0.0,0.0,54,0.00,CLR,,0.00,WeatherDisplay:10.37,2013-02-02 13:05:00,
2013-02-02 08:07:00,16.0,1.8,29.99,SSW,202,0.0,0.0,53,0.00,CLR,,0.00,WeatherDisplay:10.37,2013-02-02 13:07:00,
2013-02-02 08:08:00,16.0,1.8,29.99,WNW,292,0.0,0.0,53,0.00,CLR,,0.00,WeatherDisplay:10.37,2013-02-02 13:08:00,
2013-02-02 08:10:00,16.0,1.8,29.99,NNW,338,0.0,0.0,53,0.00,CLR,,0.00,WeatherDisplay:10.37,2013-02-02 13:10:00,
2013-02-02 08:12:00,16.0,1.8,29.99,WNW,292,0.0,0.0,53,0.00,CLR,,0.00,WeatherDisplay:10.37,2013-02-02 13:12:00,
2013-02-02 08:13:00,16.0,1.4,29.99,West,270,0.0,0.0,52,0.00,CLR,,0.00,WeatherDisplay:10.37,2013-02-02 13:13:00,
2013-02-02 08:15:00,16.0,1.8,29.99,WNW,292,0.0,0.0,53,0.00,CLR,,0.00,WeatherDisplay:10.37,2013-02-02 13:15:00,
2013-02-02 08:17:00,16.0,1.8,29.99,NW,315,0.0,0.0,53,0.00,CLR,,0.00,WeatherDisplay:10.37,2013-02-02 13:17:00,
2013-02-02 08:18:00,16.0,1.8,29.99,West,270,0.0,0.0,53,0.00,CLR,,0.00,WeatherDisplay:10.37,2013-02-02 13:18:00,
2013-02-02 08:20:00,16.2,2.0,29.99,WSW,248,0.0,0.0,53,0.00,CLR,,0.00,WeatherDisplay:10.37,2013-02-02 13:20:00,
2013-02-02 08:22:00,16.2,2.0,29.99,WNW,292,0.0,0.0,53,0.00,CLR,,0.00,WeatherDisplay:10.37,2013-02-02 13:22:00,
2013-02-02 08:23:00,16.2,2.0,29.99,WNW,292,0.0,0.0,53,0.00,CLR,,0.00,WeatherDisplay:10.37,2013-02-02 13:23:00,
2013-02-02 08:25:00,16.2,1.6,29.99,WNW,292,0.0,0.0,52,0.00,CLR,,0.00,WeatherDisplay:10.37,2013-02-02 13:25:00,
2013-02-02 08:28:00,16.2,2.0,29.99,WNW,292,0.0,0.0,53,0.00,CLR,,0.00,WeatherDisplay:10.37,2013-02-02 13:28:00,
2013-02-02 08:31:00,16.2,1.6,29.99,NW,315,0.0,0.0,52,0.00,CLR,,0.00,WeatherDisplay:10.37,2013-02-02 13:31:00,
2013-02-02 08:33:00,16.3,2.2,29.99,NW,315,0.0,0.0,53,0.00,CLR,,0.00,WeatherDisplay:10.37,2013-02-02 13:33:00,
2013-02-02 08:36:00,16.3,1.8,29.99,WSW,248,0.0,0.0,52,0.00,CLR,,0.00,WeatherDisplay:10.37,2013-02-02 13:36:00,
2013-02-02 08:38:00,16.3,1.8,29.99,West,270,0.0,0.0,52,0.00,CLR,,0.00,WeatherDisplay:10.37,2013-02-02 13:38:00,
2013-02-02 08:41:00,16.5,2.3,29.99,WNW,292,0.0,0.0,53,0.00,CLR,,0.00,WeatherDisplay:10.37,2013-02-02 13:41:00,
2013-02-02 08:43:00,16.7,2.5,29.99,SW,225,0.0,0.0,53,0.00,CLR,,0.00,WeatherDisplay:10.37,2013-02-02 13:43:00,
2013-02-02 08:47:00,16.5,2.3,29.99,West,270,0.0,0.0,53,0.00,CLR,,0.00,WeatherDisplay:10.37,2013-02-02 13:47:00,
2013-02-02 08:48:00,16.5,2.3,29.99,NNW,338,0.0,0.0,53,0.00,CLR,,0.00,WeatherDisplay:10.37,2013-02-02 13:48:00,
2013-02-02 08:49:00,16.5,2.3,29.99,NW,315,0.0,0.0,53,0.00,CLR,,0.00,WeatherDisplay:10.37,2013-02-02 13:49:00,
2013-02-02 08:52:00,16.5,2.3,29.99,WNW,292,0.0,0.0,53,0.00,CLR,,0.00,WeatherDisplay:10.37,2013-02-02 13:52:00,
2013-02-02 08:53:00,16.5,2.3,29.99,WNW,292,0.0,0.0,53,0.00,CLR,,0.00,WeatherDisplay:10.37,2013-02-02 13:53:00,
2013-02-02 08:54:00,16.5,2.3,29.99,West,270,0.0,0.0,53,0.00,CLR,,0.00,WeatherDisplay:10.37,2013-02-02 13:54:00,
2013-02-02 08:57:00,16.5,2.7,29.99,West,270,0.0,0.0,54,0.00,CLR,,0.00,WeatherDisplay:10.37,2013-02-02 13:57:00,
2013-02-02 08:58:00,16.5,2.7,29.99,West,270,0.0,0.0,54,0.00,CLR,,0.00,WeatherDisplay:10.37,2013-02-02 13:58:00,
2013-02-02 08:59:00,16.5,2.7,29.99,NW,315,0.0,0.0,54,0.00,CLR,,0.00,WeatherDisplay:10.37,2013-02-02 13:59:00,
2013-02-02 09:02:00,16.7,2.9,29.99,WNW,292,0.0,0.0,54,0.00,CLR,,0.00,WeatherDisplay:10.37,2013-02-02 14:02:00,
2013-02-02 09:03:00,16.7,2.9,29.99,WSW,248,0.0,0.0,54,0.00,CLR,,0.00,WeatherDisplay:10.37,2013-02-02 14:03:00,
2013-02-02 09:04:00,16.7,2.9,29.99,West,270,0.0,0.0,54,0.00,CLR,,0.00,WeatherDisplay:10.37,2013-02-02 14:04:00,
2013-02-02 09:07:00,16.7,2.5,29.95,NW,315,0.0,0.0,53,0.00,CLR,,0.00,WeatherDisplay:10.37,2013-02-02 14:07:00,
2013-02-02 09:08:00,16.9,3.1,29.95,WSW,248,0.0,0.0,54,0.00,CLR,,0.00,WeatherDisplay:10.37,2013-02-02 14:08:00,
2013-02-02 09:09:00,16.9,3.1,29.95,West,270,0.0,0.0,54,0.00,CLR,,0.00,WeatherDisplay:10.37,2013-02-02 14:09:00,
2013-02-02 09:12:00,17.1,3.3,29.95,West,270,0.0,0.0,54,0.00,CLR,,0.00,WeatherDisplay:10.37,2013-02-02 14:12:00,
2013-02-02 09:14:00,16.9,2.7,29.95,West,270,0.0,0.0,53,0.00,CLR,,0.00,WeatherDisplay:10.37,2013-02-02 14:14:00,
2013-02-02 09:17:00,17.1,2.4,29.95,WNW,292,0.0,0.0,52,0.00,CLR,,0.00,WeatherDisplay:10.37,2013-02-02 14:17:00,
2013-02-02 09:19:00,17.1,2.4,29.95,WSW,248,0.0,0.0,52,0.00,CLR,,0.00,WeatherDisplay:10.37,2013-02-02 14:19:00,
2013-02-02 09:22:00,17.1,2.0,29.95,NW,315,0.0,0.0,51,0.00,CLR,,0.00,WeatherDisplay:10.37,2013-02-02 14:22:00,
2013-02-02 09:24:00,17.1,2.0,29.95,WSW,248,0.0,0.0,51,0.00,CLR,,0.00,WeatherDisplay:10.37,2013-02-02 14:24:00,
2013-02-02 09:27:00,17.1,1.6,29.95,WNW,292,0.0,0.0,50,0.00,CLR,,0.00,WeatherDisplay:10.37,2013-02-02 14:27:00,
2013-02-02 09:29:00,17.6,2.1,29.95,WNW,292,0.0,0.0,50,0.00,CLR,,0.00,WeatherDisplay:10.37,2013-02-02 14:29:00,
2013-02-02 09:30:00,17.4,2.3,29.95,NNW,338,0.0,0.0,51,0.00,CLR,,0.00,WeatherDisplay:10.37,2013-02-02 14:30:00,
2013-02-02 09:32:00,17.6,2.1,29.95,WNW,292,0.0,0.0,50,0.00,CLR,,0.00,WeatherDisplay:10.37,2013-02-02 14:32:00,
2013-02-02 09:34:00,17.6,1.7,29.95,WNW,292,0.0,0.0,49,0.00,CLR,,0.00,WeatherDisplay:10.37,2013-02-02 14:34:00,
2013-02-02 09:35:00,17.6,1.7,29.95,WNW,292,0.0,0.0,49,0.00,CLR,,0.00,WeatherDisplay:10.37,2013-02-02 14:35:00,
2013-02-02 09:37:00,17.6,1.2,29.93,West,270,0.0,0.0,48,0.00,CLR,,0.00,WeatherDisplay:10.37,2013-02-02 14:37:00,
2013-02-02 09:39:00,17.6,1.7,29.93,West,270,0.0,0.0,49,0.00,CLR,,0.00,WeatherDisplay:10.37,2013-02-02 14:39:00,
2013-02-02 09:40:00,17.6,1.2,29.93,WNW,292,0.0,0.0,48,0.00,CLR,,0.00,WeatherDisplay:10.37,2013-02-02 14:40:00,
2013-02-02 09:42:00,18.0,2.0,29.93,NW,315,0.0,0.0,49,0.00,CLR,,0.00,WeatherDisplay:10.37,2013-02-02 14:42:00,
2013-02-02 09:44:00,17.8,1.4,29.93,WSW,248,0.0,0.0,48,0.00,CLR,,0.00,WeatherDisplay:10.37,2013-02-02 14:44:00,
2013-02-02 09:45:00,18.0,1.5,29.93,North,0,0.0,0.0,48,0.00,CLR,,0.00,WeatherDisplay:10.37,2013-02-02 14:45:00,
2013-02-02 09:47:00,18.0,1.5,29.93,WSW,248,0.0,0.0,48,0.00,CLR,,0.00,WeatherDisplay:10.37,2013-02-02 14:47:00,
2013-02-02 09:49:00,18.1,1.3,29.93,WNW,292,0.0,0.0,47,0.00,CLR,,0.00,WeatherDisplay:10.37,2013-02-02 14:49:00,
2013-02-02 09:50:00,18.0,1.1,29.93,West,270,0.0,0.0,47,0.00,CLR,,0.00,WeatherDisplay:10.37,2013-02-02 14:50:00,
2013-02-02 09:52:00,18.1,1.3,29.93,WNW,292,0.0,0.0,47,0.00,CLR,,0.00,WeatherDisplay:10.37,2013-02-02 14:52:00,
2013-02-02 09:54:00,18.1,1.7,29.93,NNW,338,0.0,0.0,48,0.00,CLR,,0.00,WeatherDisplay:10.37,2013-02-02 14:54:00,
2013-02-02 09:55:00,18.3,1.9,29.93,NW,315,0.0,0.0,48,0.00,CLR,,0.00,WeatherDisplay:10.37,2013-02-02 14:55:00,
2013-02-02 09:57:00,18.3,1.9,29.93,NNW,338,0.0,0.0,48,0.00,CLR,,0.00,WeatherDisplay:10.37,2013-02-02 14:57:00,
2013-02-02 09:59:00,18.1,1.7,29.93,NNW,338,0.0,0.0,48,0.00,CLR,,0.00,WeatherDisplay:10.37,2013-02-02 14:59:00,
2013-02-02 10:00:00,18.3,1.9,29.93,NW,315,0.0,0.0,48,0.00,CLR,,0.00,WeatherDisplay:10.37,2013-02-02 15:00:00,
2013-02-02 10:03:00,18.5,2.0,29.93,WNW,292,0.0,0.0,48,0.00,CLR,,0.00,WeatherDisplay:10.37,2013-02-02 15:03:00,
2013-02-02 10:04:00,18.7,2.2,29.93,WSW,248,0.0,0.0,48,0.00,CLR,,0.00,WeatherDisplay:10.37,2013-02-02 15:04:00,
2013-02-02 10:05:00,18.7,2.7,29.93,WNW,292,0.0,0.0,49,0.00,CLR,,0.00,WeatherDisplay:10.37,2013-02-02 15:05:00,
2013-02-02 10:08:00,18.7,2.2,29.93,NW,315,0.0,0.0,48,0.00,CLR,,0.00,WeatherDisplay:10.37,2013-02-02 15:08:00,
2013-02-02 10:09:00,18.7,2.7,29.93,West,270,0.0,0.0,49,0.00,CLR,,0.00,WeatherDisplay:10.37,2013-02-02 15:09:00,
2013-02-02 10:10:00,18.7,2.7,29.93,WSW,248,0.0,0.0,49,0.00,CLR,,0.00,WeatherDisplay:10.37,2013-02-02 15:10:00,
2013-02-02 10:13:00,18.7,2.7,29.93,WNW,292,0.0,0.0,49,0.00,CLR,,0.00,WeatherDisplay:10.37,2013-02-02 15:13:00,
2013-02-02 10:15:00,18.9,2.8,29.93,WNW,292,0.0,0.0,49,0.00,CLR,,0.00,WeatherDisplay:10.37,2013-02-02 15:15:00,
2013-02-02 10:18:00,18.7,3.1,29.93,WNW,292,0.0,0.0,50,0.00,CLR,,0.00,WeatherDisplay:10.37,2013-02-02 15:18:00,
2013-02-02 10:20:00,18.9,3.7,29.93,NW,315,0.0,0.0,51,0.00,CLR,,0.00,WeatherDisplay:10.37,2013-02-02 15:20:00,
2013-02-02 10:21:00,19.0,3.9,29.93,WNW,292,0.0,0.0,51,0.00,CLR,,0.00,WeatherDisplay:10.37,2013-02-02 15:21:00,
2013-02-02 10:23:00,19.2,4.4,29.90,WSW,248,0.0,0.0,52,0.00,CLR,,0.00,WeatherDisplay:10.37,2013-02-02 15:23:00,
2013-02-02 10:25:00,19.2,4.4,29.90,WNW,292,0.0,0.0,52,0.00,CLR,,0.00,WeatherDisplay:10.37,2013-02-02 15:25:00,
2013-02-02 10:26:00,19.4,4.6,29.90,NW,315,0.0,0.0,52,0.00,CLR,,0.00,WeatherDisplay:10.37,2013-02-02 15:26:00,
2013-02-02 10:28:00,19.2,4.9,29.90,WSW,248,0.0,0.0,53,0.00,CLR,,0.00,WeatherDisplay:10.37,2013-02-02 15:28:00,
2013-02-02 10:30:00,19.4,5.0,29.90,WNW,292,0.0,0.0,53,0.00,CLR,,0.00,WeatherDisplay:10.37,2013-02-02 15:30:00,
2013-02-02 10:31:00,19.2,4.9,29.90,WNW,292,0.0,0.0,53,0.00,CLR,,0.00,WeatherDisplay:10.37,2013-02-02 15:31:00,
2013-02-02 10:33:00,19.2,4.9,29.90,WNW,292,0.0,0.0,53,0.00,CLR,,0.00,WeatherDisplay:10.37,2013-02-02 15:33:00,
2013-02-02 10:35:00,19.4,5.4,29.90,West,270,0.0,0.0,54,0.00,CLR,,0.00,WeatherDisplay:10.37,2013-02-02 15:35:00,
2013-02-02 10:36:00,19.4,5.4,29.90,WSW,248,0.0,0.0,54,0.00,CLR,,0.00,WeatherDisplay:10.37,2013-02-02 15:36:00,
2013-02-02 10:39:00,19.4,5.0,29.90,NW,315,0.0,0.0,53,0.00,CLR,,0.00,WeatherDisplay:10.37,2013-02-02 15:39:00,
2013-02-02 10:40:00,19.6,5.2,29.90,WNW,292,0.0,0.0,53,0.00,CLR,,0.00,WeatherDisplay:10.37,2013-02-02 15:40:00,
2013-02-02 10:41:00,19.6,5.2,29.90,West,270,0.0,0.0,53,0.00,CLR,,0.00,WeatherDisplay:10.37,2013-02-02 15:41:00,
2013-02-02 10:44:00,19.8,5.4,29.90,NNW,338,0.0,0.0,53,0.00,CLR,,0.00,WeatherDisplay:10.37,2013-02-02 15:44:00,
2013-02-02 10:45:00,19.9,5.5,29.90,NW,315,0.0,0.0,53,0.00,CLR,,0.00,WeatherDisplay:10.37,2013-02-02 15:45:00,
2013-02-02 10:46:00,20.1,5.7,29.90,WSW,248,0.0,0.0,53,0.00,CLR,,0.00,WeatherDisplay:10.37,2013-02-02 15:46:00,
2013-02-02 10:49:00,19.9,4.7,29.90,WNW,292,0.0,0.0,51,0.00,CLR,,0.00,WeatherDisplay:10.37,2013-02-02 15:49:00,
2013-02-02 10:50:00,19.9,4.3,29.90,West,270,0.0,0.0,50,0.00,CLR,,0.00,WeatherDisplay:10.37,2013-02-02 15:50:00,
2013-02-02 10:51:00,20.3,4.6,29.90,NNW,338,0.0,0.0,50,0.00,CLR,,0.00,WeatherDisplay:10.37,2013-02-02 15:51:00,
2013-02-02 10:54:00,20.1,4.4,29.93,NNW,338,0.0,0.0,50,0.00,CLR,,0.00,WeatherDisplay:10.37,2013-02-02 15:54:00,
2013-02-02 10:55:00,20.3,5.0,29.93,WNW,292,0.0,0.0,51,0.00,CLR,,0.00,WeatherDisplay:10.37,2013-02-02 15:55:00,
2013-02-02 10:56:00,20.3,5.5,29.93,West,270,0.0,0.0,52,0.00,CLR,,0.00,WeatherDisplay:10.37,2013-02-02 15:56:00,
2013-02-02 10:59:00,20.1,4.9,29.93,West,270,0.0,0.0,51,0.00,CLR,,0.00,WeatherDisplay:10.37,2013-02-02 15:59:00,
2013-02-02 11:00:00,20.1,4.9,29.93,WSW,248,0.0,0.0,51,0.00,CLR,,0.00,WeatherDisplay:10.37,2013-02-02 16:00:00,
2013-02-02 11:01:00,20.1,4.9,29.93,West,270,0.0,0.0,51,0.00,CLR,,0.00,WeatherDisplay:10.37,2013-02-02 16:01:00,
2013-02-02 11:02:00,20.1,4.9,29.93,NW,315,0.0,0.0,51,0.00,CLR,,0.00,WeatherDisplay:10.37,2013-02-02 16:02:00,
2013-02-02 11:04:00,20.3,5.5,29.93,WSW,248,0.0,0.0,52,0.00,CLR,,0.00,WeatherDisplay:10.37,2013-02-02 16:04:00,
2013-02-02 11:05:00,20.1,4.9,29.93,West,270,0.0,0.0,51,0.00,CLR,,0.00,WeatherDisplay:10.37,2013-02-02 16:05:00,
2013-02-02 11:06:00,20.3,5.0,29.93,NW,315,0.0,0.0,51,0.00,CLR,,0.00,WeatherDisplay:10.37,2013-02-02 16:06:00,
2013-02-02 11:07:00,20.3,5.0,29.90,WNW,292,0.0,0.0,51,0.00,CLR,,0.00,WeatherDisplay:10.37,2013-02-02 16:07:00,
2013-02-02 11:10:00,20.3,5.0,29.90,North,0,0.0,0.0,51,0.00,CLR,,0.00,WeatherDisplay:10.37,2013-02-02 16:10:00,
2013-02-02 11:11:00,20.1,5.3,29.90,ENE,68,0.0,0.0,52,0.00,CLR,,0.00,WeatherDisplay:10.37,2013-02-02 16:11:00,
2013-02-02 11:12:00,20.1,5.3,29.90,WNW,292,0.0,0.0,52,0.00,CLR,,0.00,WeatherDisplay:10.37,2013-02-02 16:12:00,
2013-02-02 11:15:00,20.3,5.5,29.90,WNW,292,0.0,0.0,52,0.00,CLR,,0.00,WeatherDisplay:10.37,2013-02-02 16:15:00,
2013-02-02 11:16:00,19.9,5.1,29.90,NNW,338,0.0,0.0,52,0.00,CLR,,0.00,WeatherDisplay:10.37,2013-02-02 16:16:00,
2013-02-02 11:17:00,20.1,5.3,29.90,ENE,68,0.0,0.0,52,0.00,CLR,,0.00,WeatherDisplay:10.37,2013-02-02 16:17:00,
2013-02-02 11:20:00,19.9,4.7,29.90,NNE,22,0.0,0.0,51,0.00,CLR,,0.00,WeatherDisplay:10.37,2013-02-02 16:20:00,
2013-02-02 11:21:00,19.8,4.1,29.90,WSW,248,0.0,0.0,50,0.00,CLR,,0.00,WeatherDisplay:10.37,2013-02-02 16:21:00,
2013-02-02 11:22:00,19.8,4.1,29.93,WNW,292,0.0,0.0,50,0.00,CLR,,0.00,WeatherDisplay:10.37,2013-02-02 16:22:00,
2013-02-02 11:25:00,19.9,4.7,29.93,WNW,292,0.0,0.0,51,0.00,CLR,,0.00,WeatherDisplay:10.37,2013-02-02 16:25:00,
2013-02-02 11:26:00,19.8,4.1,29.93,ESE,112,0.0,0.0,50,0.00,CLR,,0.00,WeatherDisplay:10.37,2013-02-02 16:26:00,
2013-02-02 11:27:00,19.8,4.1,29.93,North,0,0.0,0.0,50,0.00,CLR,,0.00,WeatherDisplay:10.37,2013-02-02 16:27:00,
2013-02-02 11:30:00,19.8,4.1,29.93,WNW,292,0.0,0.0,50,0.00,CLR,,0.00,WeatherDisplay:10.37,2013-02-02 16:30:00,
2013-02-02 11:31:00,19.6,3.9,29.93,NW,315,0.0,0.0,50,0.00,CLR,,0.00,WeatherDisplay:10.37,2013-02-02 16:31:00,
2013-02-02 11:33:00,19.8,4.1,29.93,NNW,338,0.0,0.0,50,0.00,CLR,,0.00,WeatherDisplay:10.37,2013-02-02 16:33:00,
2013-02-02 11:36:00,19.8,4.1,29.93,West,270,0.0,0.0,50,0.00,CLR,,0.00,WeatherDisplay:10.37,2013-02-02 16:36:00,
2013-02-02 11:37:00,19.8,4.1,29.93,NW,315,0.0,0.0,50,0.00,CLR,,0.00,WeatherDisplay:10.37,2013-02-02 16:37:00,
2013-02-02 11:38:00,19.9,4.3,29.93,WNW,292,0.0,0.0,50,0.00,CLR,,0.00,WeatherDisplay:10.37,2013-02-02 16:38:00,
2013-02-02 11:41:00,19.9,4.3,29.93,WSW,248,0.0,0.0,50,0.00,CLR,,0.00,WeatherDisplay:10.37,2013-02-02 16:41:00,
2013-02-02 11:42:00,20.1,4.4,29.93,NNW,338,0.0,0.0,50,0.00,CLR,,0.00,WeatherDisplay:10.37,2013-02-02 16:42:00,
2013-02-02 11:43:00,20.3,4.6,29.93,NNW,338,0.0,0.0,50,0.00,CLR,,0.00,WeatherDisplay:10.37,2013-02-02 16:43:00,
2013-02-02 11:46:00,20.3,4.6,29.93,NNW,338,0.0,0.0,50,0.00,CLR,,0.00,WeatherDisplay:10.37,2013-02-02 16:46:00,
2013-02-02 11:47:00,20.5,4.8,29.93,West,270,0.0,0.0,50,0.00,CLR,,0.00,WeatherDisplay:10.37,2013-02-02 16:47:00,
2013-02-02 11:48:00,20.3,4.6,29.93,WNW,292,0.0,0.0,50,0.00,CLR,,0.00,WeatherDisplay:10.37,2013-02-02 16:48:00,
2013-02-02 11:51:00,20.1,4.0,29.93,WSW,248,0.0,0.0,49,0.00,CLR,,0.00,WeatherDisplay:10.37,2013-02-02 16:51:00,
2013-02-02 11:52:00,20.3,4.2,29.93,NNW,338,0.0,0.0,49,0.00,CLR,,0.00,WeatherDisplay:10.37,2013-02-02 16:52:00,
2013-02-02 11:53:00,20.3,4.6,29.93,WNW,292,0.0,0.0,50,0.00,CLR,,0.00,WeatherDisplay:10.37,2013-02-02 16:53:00,
2013-02-02 11:56:00,20.1,4.0,29.93,West,270,0.0,0.0,49,0.00,CLR,,0.00,WeatherDisplay:10.37,2013-02-02 16:56:00,
2013-02-02 11:57:00,20.1,4.0,29.93,WNW,292,0.0,0.0,49,0.00,CLR,,0.00,WeatherDisplay:10.37,2013-02-02 16:57:00,
2013-02-02 11:58:00,20.1,4.0,29.93,NNW,338,0.0,0.0,49,0.00,CLR,,0.00,WeatherDisplay:10.37,2013-02-02 16:58:00,
2013-02-02 12:01:00,20.1,4.4,29.93,NW,315,0.0,0.0,50,0.00,CLR,,0.00,WeatherDisplay:10.37,2013-02-02 17:01:00,
2013-02-02 12:02:00,20.1,4.4,29.93,WNW,292,0.0,0.0,50,0.00,CLR,,0.00,WeatherDisplay:10.37,2013-02-02 17:02:00,
2013-02-02 12:03:00,20.1,4.4,29.93,WNW,292,0.0,0.0,50,0.00,CLR,,0.00,WeatherDisplay:10.37,2013-02-02 17:03:00,
2013-02-02 12:06:00,20.3,5.0,29.90,NNW,338,0.0,0.0,51,0.00,CLR,,0.00,WeatherDisplay:10.37,2013-02-02 17:06:00,
2013-02-02 12:07:00,20.3,5.0,29.90,WNW,292,0.0,0.0,51,0.00,CLR,,0.00,WeatherDisplay:10.37,2013-02-02 17:07:00,
2013-02-02 12:08:00,20.5,5.2,29.90,NW,315,0.0,0.0,51,0.00,CLR,,0.00,WeatherDisplay:10.37,2013-02-02 17:08:00,
2013-02-02 12:11:00,20.7,5.4,29.90,NW,315,0.0,0.0,51,0.00,CLR,,0.00,WeatherDisplay:10.37,2013-02-02 17:11:00,
2013-02-02 12:12:00,20.7,5.4,29.90,NNW,338,0.0,0.0,51,0.00,CLR,,0.00,WeatherDisplay:10.37,2013-02-02 17:12:00,
2013-02-02 12:13:00,20.7,5.4,29.90,WNW,292,0.0,0.0,51,0.00,CLR,,0.00,WeatherDisplay:10.37,2013-02-02 17:13:00,
2013-02-02 12:17:00,20.5,4.8,29.90,NNW,338,0.0,0.0,50,0.00,CLR,,0.00,WeatherDisplay:10.37,2013-02-02 17:17:00,
2013-02-02 12:18:00,20.8,5.5,29.90,WNW,292,0.0,0.0,51,0.00,CLR,,0.00,WeatherDisplay:10.37,2013-02-02 17:18:00,
2013-02-02 12:22:00,21.2,5.9,29.90,North,0,0.0,0.0,51,0.00,CLR,,0.00,WeatherDisplay:10.37,2013-02-02 17:22:00,
2013-02-02 12:23:00,21.2,5.9,29.90,North,0,0.0,0.0,51,0.00,CLR,,0.00,WeatherDisplay:10.37,2013-02-02 17:23:00,
2013-02-02 12:24:00,21.2,5.4,29.90,North,0,0.0,0.0,50,0.00,CLR,,0.00,WeatherDisplay:10.37,2013-02-02 17:24:00,
2013-02-02 12:27:00,21.2,5.4,29.90,WNW,292,0.0,0.0,50,0.00,CLR,,0.00,WeatherDisplay:10.37,2013-02-02 17:27:00,
2013-02-02 12:28:00,21.2,5.4,29.90,North,0,0.0,0.0,50,0.00,CLR,,0.00,WeatherDisplay:10.37,2013-02-02 17:28:00,
2013-02-02 12:29:00,21.4,5.6,29.90,WNW,292,0.0,0.0,50,0.00,CLR,,0.00,WeatherDisplay:10.37,2013-02-02 17:29:00,
2013-02-02 12:32:00,21.6,5.3,29.90,WNW,292,0.0,0.0,49,0.00,CLR,,0.00,WeatherDisplay:10.37,2013-02-02 17:32:00,
2013-02-02 12:33:00,21.6,5.3,29.90,WNW,292,0.0,0.0,49,0.00,CLR,,0.00,WeatherDisplay:10.37,2013-02-02 17:33:00,
2013-02-02 12:34:00,21.6,5.3,29.90,NW,315,0.0,0.0,49,0.00,CLR,,0.00,WeatherDisplay:10.37,2013-02-02 17:34:00,
2013-02-02 12:37:00,21.7,5.0,29.90,WNW,292,0.0,0.0,48,0.00,CLR,,0.00,WeatherDisplay:10.37,2013-02-02 17:37:00,
2013-02-02 12:38:00,21.7,5.0,29.90,West,270,0.0,0.0,48,0.00,CLR,,0.00,WeatherDisplay:10.37,2013-02-02 17:38:00,
2013-02-02 12:39:00,21.6,4.9,29.90,WNW,292,0.0,0.0,48,0.00,CLR,,0.00,WeatherDisplay:10.37,2013-02-02 17:39:00,
2013-02-02 12:42:00,21.7,5.0,29.90,WSW,248,0.0,0.0,48,0.00,CLR,,0.00,WeatherDisplay:10.37,2013-02-02 17:42:00,
2013-02-02 12:43:00,21.9,5.2,29.90,WNW,292,0.0,0.0,48,0.00,CLR,,0.00,WeatherDisplay:10.37,2013-02-02 17:43:00,
2013-02-02 12:45:00,21.9,5.2,29.90,WSW,248,0.0,0.0,48,0.00,CLR,,0.00,WeatherDisplay:10.37,2013-02-02 17:45:00,
2013-02-02 12:48:00,21.7,4.6,29.90,WSW,248,0.0,0.0,47,0.00,CLR,,0.00,WeatherDisplay:10.37,2013-02-02 17:48:00,
2013-02-02 12:50:00,21.6,4.4,29.90,West,270,0.0,0.0,47,0.00,CLR,,0.00,WeatherDisplay:10.37,2013-02-02 17:50:00,
2013-02-02 12:53:00,21.6,4.4,29.87,North,0,0.0,0.0,47,0.00,CLR,,0.00,WeatherDisplay:10.37,2013-02-02 17:53:00,
2013-02-02 12:55:00,21.6,4.4,29.87,NW,315,0.0,0.0,47,0.00,CLR,,0.00,WeatherDisplay:10.37,2013-02-02 17:55:00,
2013-02-02 12:58:00,21.6,4.4,29.87,WNW,292,0.0,0.0,47,0.00,CLR,,0.00,WeatherDisplay:10.37,2013-02-02 17:58:00,
2013-02-02 13:00:00,21.7,4.6,29.87,NW,315,0.0,0.0,47,0.00,CLR,,0.00,WeatherDisplay:10.37,2013-02-02 18:00:00,
2013-02-02 13:03:00,21.9,5.2,29.87,West,270,0.0,0.0,48,0.00,CLR,,0.00,WeatherDisplay:10.37,2013-02-02 18:03:00,
2013-02-02 13:04:00,21.9,5.2,29.87,WNW,292,0.0,0.0,48,0.00,CLR,,0.00,WeatherDisplay:10.37,2013-02-02 18:04:00,
2013-02-02 13:05:00,21.7,4.6,29.87,NNW,338,0.0,0.0,47,0.00,CLR,,0.00,WeatherDisplay:10.37,2013-02-02 18:05:00,
2013-02-02 13:08:00,21.9,4.7,29.87,WSW,248,0.0,0.0,47,0.00,CLR,,0.00,WeatherDisplay:10.37,2013-02-02 18:08:00,
2013-02-02 13:09:00,21.7,4.6,29.87,WNW,292,0.0,0.0,47,0.00,CLR,,0.00,WeatherDisplay:10.37,2013-02-02 18:09:00,
2013-02-02 13:11:00,21.7,4.6,29.87,West,270,0.0,0.0,47,0.00,CLR,,0.00,WeatherDisplay:10.37,2013-02-02 18:11:00,
2013-02-02 13:13:00,21.6,4.4,29.87,WNW,292,0.0,0.0,47,0.00,CLR,,0.00,WeatherDisplay:10.37,2013-02-02 18:13:00,
2013-02-02 13:14:00,21.6,4.4,29.87,North,0,0.0,0.0,47,0.00,CLR,,0.00,WeatherDisplay:10.37,2013-02-02 18:14:00,
2013-02-02 13:16:00,21.6,4.4,29.87,WSW,248,0.0,0.0,47,0.00,CLR,,0.00,WeatherDisplay:10.37,2013-02-02 18:16:00,
2013-02-02 13:18:00,21.7,5.0,29.87,WNW,292,0.0,0.0,48,0.00,CLR,,0.00,WeatherDisplay:10.37,2013-02-02 18:18:00,
2013-02-02 13:19:00,21.6,4.9,29.87,WNW,292,0.0,0.0,48,0.00,CLR,,0.00,WeatherDisplay:10.37,2013-02-02 18:19:00,
2013-02-02 13:21:00,21.7,4.6,29.87,SSW,202,0.0,0.0,47,0.00,CLR,,0.00,WeatherDisplay:10.37,2013-02-02 18:21:00,
2013-02-02 13:23:00,21.7,4.6,29.87,WNW,292,0.0,0.0,47,0.00,CLR,,0.00,WeatherDisplay:10.37,2013-02-02 18:23:00,
2013-02-02 13:24:00,21.7,4.6,29.87,West,270,0.0,0.0,47,0.00,CLR,,0.00,WeatherDisplay:10.37,2013-02-02 18:24:00,
2013-02-02 13:26:00,21.9,4.7,29.87,NNW,338,0.0,0.0,47,0.00,CLR,,0.00,WeatherDisplay:10.37,2013-02-02 18:26:00,
2013-02-02 13:28:00,22.1,5.4,29.87,West,270,0.0,0.0,48,0.00,CLR,,0.00,WeatherDisplay:10.37,2013-02-02 18:28:00,
2013-02-02 13:29:00,22.1,5.4,29.87,WNW,292,0.0,0.0,48,0.00,CLR,,0.00,WeatherDisplay:10.37,2013-02-02 18:29:00,
2013-02-02 13:31:00,22.3,5.1,29.87,NNE,22,0.0,0.0,47,0.00,CLR,,0.00,WeatherDisplay:10.37,2013-02-02 18:31:00,
2013-02-02 13:33:00,22.3,5.5,29.87,NW,315,0.0,0.0,48,0.00,CLR,,0.00,WeatherDisplay:10.37,2013-02-02 18:33:00,
2013-02-02 13:34:00,22.3,5.5,29.87,North,0,0.0,0.0,48,0.00,CLR,,0.00,WeatherDisplay:10.37,2013-02-02 18:34:00,
2013-02-02 13:36:00,22.3,5.1,29.87,NNW,338,0.0,0.0,47,0.00,CLR,,0.00,WeatherDisplay:10.37,2013-02-02 18:36:00,
2013-02-02 13:38:00,22.6,5.4,29.87,West,270,0.0,0.0,47,0.00,CLR,,0.00,WeatherDisplay:10.37,2013-02-02 18:38:00,
2013-02-02 13:39:00,22.5,5.2,29.87,WSW,248,0.0,0.0,47,0.00,CLR,,0.00,WeatherDisplay:10.37,2013-02-02 18:39:00,
2013-02-02 13:41:00,22.5,5.2,29.87,WSW,248,0.0,0.0,47,0.00,CLR,,0.00,WeatherDisplay:10.37,2013-02-02 18:41:00,
2013-02-02 13:43:00,22.5,5.2,29.87,SSW,202,0.0,0.0,47,0.00,CLR,,0.00,WeatherDisplay:10.37,2013-02-02 18:43:00,
2013-02-02 13:44:00,22.6,5.4,29.87,West,270,0.0,0.0,47,0.00,CLR,,0.00,WeatherDisplay:10.37,2013-02-02 18:44:00,
2013-02-02 13:46:00,22.5,5.2,29.87,WNW,292,0.0,0.0,47,0.00,CLR,,0.00,WeatherDisplay:10.37,2013-02-02 18:46:00,
2013-02-02 13:48:00,22.5,5.7,29.87,NW,315,0.0,0.0,48,0.00,CLR,,0.00,WeatherDisplay:10.37,2013-02-02 18:48:00,
2013-02-02 13:49:00,22.5,5.7,29.87,NNW,338,0.0,0.0,48,0.00,CLR,,0.00,WeatherDisplay:10.37,2013-02-02 18:49:00,
2013-02-02 13:52:00,22.5,5.7,29.87,WNW,292,0.0,0.0,48,0.00,CLR,,0.00,WeatherDisplay:10.37,2013-02-02 18:52:00,
2013-02-02 13:53:00,22.5,5.7,29.87,WNW,292,0.0,0.0,48,0.00,CLR,,0.00,WeatherDisplay:10.37,2013-02-02 18:53:00,
2013-02-02 13:54:00,22.5,5.7,29.87,North,0,0.0,0.0,48,0.00,CLR,,0.00,WeatherDisplay:10.37,2013-02-02 18:54:00,
2013-02-02 13:57:00,22.3,5.5,29.87,NNE,22,0.0,0.0,48,0.00,CLR,,0.00,WeatherDisplay:10.37,2013-02-02 18:57:00,
2013-02-02 13:58:00,22.5,6.2,29.87,NNE,22,0.0,0.0,49,0.00,CLR,,0.00,WeatherDisplay:10.37,2013-02-02 18:58:00,
2013-02-02 13:59:00,22.6,6.3,29.87,NW,315,0.0,0.0,49,0.00,CLR,,0.00,WeatherDisplay:10.37,2013-02-02 18:59:00,
2013-02-02 14:00:00,22.6,6.8,29.87,WNW,292,0.0,0.0,50,0.00,CLR,,0.00,WeatherDisplay:10.37,2013-02-02 19:00:00,
2013-02-02 14:02:00,22.6,6.3,29.87,NE,45,0.0,0.0,49,0.00,CLR,,0.00,WeatherDisplay:10.37,2013-02-02 19:02:00,
2013-02-02 14:03:00,22.5,6.2,29.87,WNW,292,0.0,0.0,49,0.00,CLR,,0.00,WeatherDisplay:10.37,2013-02-02 19:03:00,
2013-02-02 14:05:00,22.3,6.0,29.87,WNW,292,0.0,0.0,49,0.00,CLR,,0.00,WeatherDisplay:10.37,2013-02-02 19:05:00,
2013-02-02 14:07:00,22.3,6.0,29.87,WNW,292,0.0,0.0,49,0.00,CLR,,0.00,WeatherDisplay:10.37,2013-02-02 19:07:00,
2013-02-02 14:08:00,22.5,6.6,29.87,WNW,292,0.0,0.0,50,0.00,CLR,,0.00,WeatherDisplay:10.37,2013-02-02 19:08:00,
2013-02-02 14:10:00,22.3,6.4,29.87,WSW,248,0.0,0.0,50,0.00,CLR,,0.00,WeatherDisplay:10.37,2013-02-02 19:10:00,
2013-02-02 14:12:00,22.3,6.9,29.87,WNW,292,0.0,0.0,51,0.00,CLR,,0.00,WeatherDisplay:10.37,2013-02-02 19:12:00,
2013-02-02 14:14:00,22.6,7.6,29.87,West,270,0.0,0.0,52,0.00,CLR,,0.00,WeatherDisplay:10.37,2013-02-02 19:14:00,
2013-02-02 14:15:00,22.3,7.3,29.87,WNW,292,0.0,0.0,52,0.00,CLR,,0.00,WeatherDisplay:10.37,2013-02-02 19:15:00,
2013-02-02 14:16:00,22.3,7.3,29.87,NW,315,0.0,0.0,52,0.00,CLR,,0.00,WeatherDisplay:10.37,2013-02-02 19:16:00,
2013-02-02 14:17:00,22.5,7.5,29.87,WNW,292,0.0,0.0,52,0.00,CLR,,0.00,WeatherDisplay:10.37,2013-02-02 19:17:00,
2013-02-02 14:19:00,22.5,7.5,29.87,NNW,338,0.0,0.0,52,0.00,CLR,,0.00,WeatherDisplay:10.37,2013-02-02 19:19:00,
2013-02-02 14:20:00,22.6,7.6,29.87,WNW,292,0.0,0.0,52,0.00,CLR,,0.00,WeatherDisplay:10.37,2013-02-02 19:20:00,
2013-02-02 14:21:00,22.5,7.5,29.87,WNW,292,0.0,0.0,52,0.00,CLR,,0.00,WeatherDisplay:10.37,2013-02-02 19:21:00,
2013-02-02 14:22:00,22.5,7.5,29.87,WSW,248,0.0,0.0,52,0.00,CLR,,0.00,WeatherDisplay:10.37,2013-02-02 19:22:00,
2013-02-02 14:24:00,22.6,7.6,29.87,West,270,0.0,0.0,52,0.00,CLR,,0.00,WeatherDisplay:10.37,2013-02-02 19:24:00,
2013-02-02 14:26:00,22.5,7.5,29.87,WNW,292,0.0,0.0,52,0.00,CLR,,0.00,WeatherDisplay:10.37,2013-02-02 19:26:00,
2013-02-02 14:27:00,22.5,7.5,29.87,NNW,338,0.0,0.0,52,0.00,CLR,,0.00,WeatherDisplay:10.37,2013-02-02 19:27:00,
2013-02-02 14:29:00,22.5,7.5,29.87,NNW,338,0.0,0.0,52,0.00,CLR,,0.00,WeatherDisplay:10.37,2013-02-02 19:29:00,
2013-02-02 14:31:00,22.5,7.5,29.87,WNW,292,0.0,0.0,52,0.00,CLR,,0.00,WeatherDisplay:10.37,2013-02-02 19:31:00,
2013-02-02 14:32:00,22.3,7.3,29.87,West,270,0.0,0.0,52,0.00,CLR,,0.00,WeatherDisplay:10.37,2013-02-02 19:32:00,
2013-02-02 14:34:00,22.3,6.9,29.87,West,270,0.0,0.0,51,0.00,CLR,,0.00,WeatherDisplay:10.37,2013-02-02 19:34:00,
2013-02-02 14:36:00,22.3,6.9,29.87,West,270,0.0,0.0,51,0.00,CLR,,0.00,WeatherDisplay:10.37,2013-02-02 19:36:00,
2013-02-02 14:37:00,22.3,6.4,29.84,WNW,292,0.0,0.0,50,0.00,CLR,,0.00,WeatherDisplay:10.37,2013-02-02 19:37:00,
2013-02-02 14:38:00,22.3,6.4,29.84,North,0,0.0,0.0,50,0.00,CLR,,0.00,WeatherDisplay:10.37,2013-02-02 19:38:00,
2013-02-02 14:39:00,22.5,7.0,29.84,NNE,22,0.0,0.0,51,0.00,CLR,,0.00,WeatherDisplay:10.37,2013-02-02 19:39:00,
2013-02-02 14:41:00,22.6,7.6,29.84,WSW,248,0.0,0.0,52,0.00,CLR,,0.00,WeatherDisplay:10.37,2013-02-02 19:41:00,
2013-02-02 14:42:00,22.6,7.6,29.84,WNW,292,0.0,0.0,52,0.00,CLR,,0.00,WeatherDisplay:10.37,2013-02-02 19:42:00,
2013-02-02 14:43:00,22.5,7.5,29.84,WNW,292,0.0,0.0,52,0.00,CLR,,0.00,WeatherDisplay:10.37,2013-02-02 19:43:00,
2013-02-02 14:44:00,22.5,7.5,29.84,WNW,292,0.0,0.0,52,0.00,CLR,,0.00,WeatherDisplay:10.37,2013-02-02 19:44:00,
2013-02-02 14:46:00,22.3,6.9,29.84,NNE,22,0.0,0.0,51,0.00,CLR,,0.00,WeatherDisplay:10.37,2013-02-02 19:46:00,
2013-02-02 14:47:00,22.3,6.9,29.84,ESE,112,0.0,0.0,51,0.00,CLR,,0.00,WeatherDisplay:10.37,2013-02-02 19:47:00,
2013-02-02 14:48:00,22.5,7.5,29.84,SSW,202,0.0,0.0,52,0.00,CLR,,0.00,WeatherDisplay:10.37,2013-02-02 19:48:00,
2013-02-02 14:49:00,22.5,7.5,29.84,WNW,292,0.0,0.0,52,0.00,CLR,,0.00,WeatherDisplay:10.37,2013-02-02 19:49:00,
2013-02-02 14:51:00,22.5,7.5,29.84,WNW,292,0.0,0.0,52,0.00,CLR,,0.00,WeatherDisplay:10.37,2013-02-02 19:51:00,
2013-02-02 14:52:00,22.5,7.5,29.84,WSW,248,0.0,0.0,52,0.00,CLR,,0.00,WeatherDisplay:10.37,2013-02-02 19:52:00,
2013-02-02 14:53:00,22.5,7.5,29.84,WNW,292,0.0,0.0,52,0.00,CLR,,0.00,WeatherDisplay:10.37,2013-02-02 19:53:00,
2013-02-02 14:55:00,22.5,7.5,29.84,NNW,338,0.0,0.0,52,0.00,CLR,,0.00,WeatherDisplay:10.37,2013-02-02 19:55:00,
2013-02-02 14:56:00,22.3,7.3,29.84,WNW,292,0.0,0.0,52,0.00,CLR,,0.00,WeatherDisplay:10.37,2013-02-02 19:56:00,
2013-02-02 14:57:00,22.3,7.3,29.84,WNW,292,0.0,0.0,52,0.00,CLR,,0.00,WeatherDisplay:10.37,2013-02-02 19:57:00,
2013-02-02 14:58:00,22.3,7.3,29.84,NNW,338,0.0,0.0,52,0.00,CLR,,0.00,WeatherDisplay:10.37,2013-02-02 19:58:00,
2013-02-02 15:00:00,22.1,7.1,29.84,West,270,0.0,0.0,52,0.00,CLR,,0.00,WeatherDisplay:10.37,2013-02-02 20:00:00,
2013-02-02 15:01:00,22.1,7.1,29.84,West,270,0.0,0.0,52,0.00,CLR,,0.00,WeatherDisplay:10.37,2013-02-02 20:01:00,
2013-02-02 15:02:00,22.3,7.7,29.84,WSW,248,0.0,0.0,53,0.00,CLR,,0.00,WeatherDisplay:10.37,2013-02-02 20:02:00,
2013-02-02 15:04:00,22.3,7.7,29.84,WSW,248,0.0,0.0,53,0.00,CLR,,0.00,WeatherDisplay:10.37,2013-02-02 20:04:00,
2013-02-02 15:05:00,22.5,7.9,29.84,West,270,0.0,0.0,53,0.00,CLR,,0.00,WeatherDisplay:10.37,2013-02-02 20:05:00,
2013-02-02 15:06:00,22.3,7.7,29.84,NW,315,0.0,0.0,53,0.00,CLR,,0.00,WeatherDisplay:10.37,2013-02-02 20:06:00,
2013-02-02 15:07:00,22.3,7.7,29.84,NNW,338,0.0,0.0,53,0.00,CLR,,0.00,WeatherDisplay:10.37,2013-02-02 20:07:00,
2013-02-02 15:09:00,22.5,8.3,29.84,WNW,292,0.0,0.0,54,0.00,CLR,,0.00,WeatherDisplay:10.37,2013-02-02 20:09:00,
2013-02-02 15:11:00,22.5,8.3,29.84,NNW,338,0.0,0.0,54,0.00,CLR,,0.00,WeatherDisplay:10.37,2013-02-02 20:11:00,
2013-02-02 15:12:00,22.3,8.5,29.84,WNW,292,0.0,0.0,55,0.00,CLR,,0.00,WeatherDisplay:10.37,2013-02-02 20:12:00,
2013-02-02 15:15:00,22.1,8.4,29.84,WNW,292,0.0,0.0,55,0.00,CLR,,0.00,WeatherDisplay:10.37,2013-02-02 20:15:00,
2013-02-02 15:16:00,22.1,8.8,29.84,WNW,292,0.0,0.0,56,0.00,CLR,,0.00,WeatherDisplay:10.37,2013-02-02 20:16:00,
2013-02-02 15:17:00,22.1,9.2,29.84,WNW,292,0.0,0.0,57,0.00,CLR,,0.00,WeatherDisplay:10.37,2013-02-02 20:17:00,
2013-02-02 15:20:00,22.1,9.6,29.84,NW,315,0.0,0.0,58,0.00,CLR,,0.00,WeatherDisplay:10.37,2013-02-02 20:20:00,
2013-02-02 15:21:00,22.1,9.6,29.84,WSW,248,0.0,0.0,58,0.00,CLR,,0.00,WeatherDisplay:10.37,2013-02-02 20:21:00,
2013-02-02 15:22:00,22.1,9.9,29.84,WNW,292,0.0,0.0,59,0.00,CLR,,0.00,WeatherDisplay:10.37,2013-02-02 20:22:00,
2013-02-02 15:25:00,22.1,10.3,29.84,WSW,248,0.0,0.0,60,0.00,CLR,,0.00,WeatherDisplay:10.37,2013-02-02 20:25:00,
2013-02-02 15:26:00,22.1,10.3,29.84,WSW,248,0.0,0.0,60,0.00,CLR,,0.00,WeatherDisplay:10.37,2013-02-02 20:26:00,
2013-02-02 15:27:00,22.1,10.3,29.84,WNW,292,0.0,0.0,60,0.00,CLR,,0.00,WeatherDisplay:10.37,2013-02-02 20:27:00,
2013-02-02 15:30:00,21.9,10.5,29.84,WSW,248,0.0,0.0,61,0.00,CLR,,0.00,WeatherDisplay:10.37,2013-02-02 20:30:00,
2013-02-02 15:31:00,21.9,10.9,29.84,WNW,292,0.0,0.0,62,0.00,CLR,,0.00,WeatherDisplay:10.37,2013-02-02 20:31:00,
2013-02-02 15:32:00,21.9,10.9,29.84,WNW,292,0.0,0.0,62,0.00,CLR,,0.00,WeatherDisplay:10.37,2013-02-02 20:32:00,
2013-02-02 15:33:00,21.7,10.7,29.84,WNW,292,0.0,0.0,62,0.00,CLR,,0.00,WeatherDisplay:10.37,2013-02-02 20:33:00,
2013-02-02 15:35:00,21.7,10.7,29.84,WNW,292,0.0,0.0,62,0.00,CLR,,0.00,WeatherDisplay:10.37,2013-02-02 20:35:00,
2013-02-02 15:36:00,21.7,10.7,29.84,West,270,0.0,0.0,62,0.00,CLR,,0.00,WeatherDisplay:10.37,2013-02-02 20:36:00,
2013-02-02 15:37:00,21.6,10.5,29.84,WNW,292,0.0,0.0,62,0.00,CLR,,0.00,WeatherDisplay:10.37,2013-02-02 20:37:00,
2013-02-02 15:38:00,21.4,10.4,29.84,WNW,292,0.0,0.0,62,0.00,CLR,,0.00,WeatherDisplay:10.37,2013-02-02 20:38:00,
2013-02-02 15:40:00,21.4,10.7,29.84,WNW,292,0.0,0.0,63,0.00,CLR,,0.00,WeatherDisplay:10.37,2013-02-02 20:40:00,
2013-02-02 15:41:00,21.4,10.7,29.84,WNW,292,0.0,0.0,63,0.00,CLR,,0.00,WeatherDisplay:10.37,2013-02-02 20:41:00,
2013-02-02 15:42:00,21.4,10.7,29.84,NW,315,0.0,0.0,63,0.00,CLR,,0.00,WeatherDisplay:10.37,2013-02-02 20:42:00,
2013-02-02 15:43:00,21.2,10.6,29.84,WSW,248,0.0,0.0,63,0.00,CLR,,0.00,WeatherDisplay:10.37,2013-02-02 20:43:00,
2013-02-02 15:45:00,21.4,11.1,29.84,NNW,338,0.0,0.0,64,0.00,CLR,,0.00,WeatherDisplay:10.37,2013-02-02 20:45:00,
2013-02-02 15:46:00,21.6,11.3,29.84,North,0,0.0,0.0,64,0.00,CLR,,0.00,WeatherDisplay:10.37,2013-02-02 20:46:00,
2013-02-02 15:47:00,21.6,11.3,29.84,NW,315,0.0,0.0,64,0.00,CLR,,0.00,WeatherDisplay:10.37,2013-02-02 20:47:00,
2013-02-02 15:48:00,21.6,11.3,29.84,WNW,292,0.0,0.0,64,0.00,CLR,,0.00,WeatherDisplay:10.37,2013-02-02 20:48:00,
2013-02-02 15:51:00,21.6,11.6,29.84,WNW,292,0.0,0.0,65,0.00,CLR,,0.00,WeatherDisplay:10.37,2013-02-02 20:51:00,
2013-02-02 15:52:00,21.6,11.6,29.84,WSW,248,0.0,0.0,65,0.00,CLR,,0.00,WeatherDisplay:10.37,2013-02-02 20:52:00,
2013-02-02 15:53:00,21.7,11.8,29.84,SSW,202,0.0,0.0,65,0.00,CLR,,0.00,WeatherDisplay:10.37,2013-02-02 20:53:00,
2013-02-02 15:56:00,21.6,11.9,29.84,NNW,338,0.0,0.0,66,0.00,CLR,,0.00,WeatherDisplay:10.37,2013-02-02 20:56:00,
2013-02-02 15:57:00,21.6,11.9,29.84,West,270,0.0,0.0,66,0.00,CLR,,0.00,WeatherDisplay:10.37,2013-02-02 20:57:00,
2013-02-02 15:58:00,21.4,12.1,29.84,WNW,292,0.0,0.0,67,0.00,CLR,,0.00,WeatherDisplay:10.37,2013-02-02 20:58:00,
2013-02-02 16:01:00,21.4,12.5,29.84,West,270,0.0,0.0,68,0.00,CLR,,0.00,WeatherDisplay:10.37,2013-02-02 21:01:00,
2013-02-02 16:02:00,21.4,12.5,29.84,NW,315,0.0,0.0,68,0.00,CLR,,0.00,WeatherDisplay:10.37,2013-02-02 21:02:00,
2013-02-02 16:03:00,21.4,12.5,29.84,WSW,248,0.0,0.0,68,0.00,CLR,,0.00,WeatherDisplay:10.37,2013-02-02 21:03:00,
2013-02-02 16:06:00,21.4,12.5,29.84,NNW,338,0.0,0.0,68,0.00,CLR,,0.00,WeatherDisplay:10.37,2013-02-02 21:06:00,
2013-02-02 16:07:00,21.6,13.0,29.84,North,0,0.0,0.0,69,0.00,CLR,,0.00,WeatherDisplay:10.37,2013-02-02 21:07:00,
2013-02-02 16:08:00,21.7,13.1,29.84,WNW,292,0.0,0.0,69,0.00,CLR,,0.00,WeatherDisplay:10.37,2013-02-02 21:08:00,
2013-02-02 16:11:00,21.6,13.3,29.84,West,270,0.0,0.0,70,0.00,CLR,,0.00,WeatherDisplay:10.37,2013-02-02 21:11:00,
2013-02-02 16:12:00,21.7,13.5,29.84,North,0,0.0,0.0,70,0.00,CLR,,0.00,WeatherDisplay:10.37,2013-02-02 21:12:00,
2013-02-02 16:13:00,21.6,13.3,29.84,WNW,292,0.0,0.0,70,0.00,CLR,,0.00,WeatherDisplay:10.37,2013-02-02 21:13:00,
2013-02-02 16:16:00,21.4,13.1,29.84,WNW,292,0.0,0.0,70,0.00,CLR,,0.00,WeatherDisplay:10.37,2013-02-02 21:16:00,
2013-02-02 16:17:00,21.4,13.1,29.84,WNW,292,0.0,0.0,70,0.00,CLR,,0.00,WeatherDisplay:10.37,2013-02-02 21:17:00,
2013-02-02 16:18:00,21.4,12.8,29.84,WNW,292,0.0,0.0,69,0.00,CLR,,0.00,WeatherDisplay:10.37,2013-02-02 21:18:00,
2013-02-02 16:21:00,21.6,13.0,29.84,West,270,0.0,0.0,69,0.00,CLR,,0.00,WeatherDisplay:10.37,2013-02-02 21:21:00,
2013-02-02 16:22:00,21.6,13.0,29.84,West,270,0.0,0.0,69,0.00,CLR,,0.00,WeatherDisplay:10.37,2013-02-02 21:22:00,
2013-02-02 16:24:00,21.6,13.0,29.84,WNW,292,0.0,0.0,69,0.00,CLR,,0.00,WeatherDisplay:10.37,2013-02-02 21:24:00,
2013-02-02 16:26:00,21.4,12.8,29.84,WNW,292,0.0,0.0,69,0.00,CLR,,0.00,WeatherDisplay:10.37,2013-02-02 21:26:00,
2013-02-02 16:27:00,21.4,12.8,29.84,NNW,338,0.0,0.0,69,0.00,CLR,,0.00,WeatherDisplay:10.37,2013-02-02 21:27:00,
2013-02-02 16:29:00,21.2,12.6,29.84,WNW,292,0.0,0.0,69,0.00,CLR,,0.00,WeatherDisplay:10.37,2013-02-02 21:29:00,
2013-02-02 16:31:00,21.2,12.6,29.84,NNW,338,0.0,0.0,69,0.00,CLR,,0.00,WeatherDisplay:10.37,2013-02-02 21:31:00,
2013-02-02 16:32:00,21.2,12.6,29.84,NW,315,0.0,0.0,69,0.00,CLR,,0.00,WeatherDisplay:10.37,2013-02-02 21:32:00,
2013-02-02 16:33:00,21.2,12.6,29.84,NW,315,0.0,0.0,69,0.00,CLR,,0.00,WeatherDisplay:10.37,2013-02-02 21:33:00,
2013-02-02 16:34:00,21.2,12.9,29.84,West,270,0.0,0.0,70,0.00,CLR,,0.00,WeatherDisplay:10.37,2013-02-02 21:34:00,
2013-02-02 16:36:00,21.2,12.9,29.84,West,270,0.0,0.0,70,0.00,CLR,,0.00,WeatherDisplay:10.37,2013-02-02 21:36:00,
2013-02-02 16:37:00,21.2,12.9,29.84,North,0,0.0,0.0,70,0.00,CLR,,0.00,WeatherDisplay:10.37,2013-02-02 21:37:00,
2013-02-02 16:38:00,21.2,12.9,29.84,NW,315,0.0,0.0,70,0.00,CLR,,0.00,WeatherDisplay:10.37,2013-02-02 21:38:00,
2013-02-02 16:39:00,21.2,12.9,29.84,WSW,248,0.0,0.0,70,0.00,CLR,,0.00,WeatherDisplay:10.37,2013-02-02 21:39:00,
2013-02-02 16:41:00,21.2,12.9,29.84,WSW,248,0.0,0.0,70,0.00,CLR,,0.00,WeatherDisplay:10.37,2013-02-02 21:41:00,
2013-02-02 16:42:00,21.2,12.9,29.84,WSW,248,0.0,0.0,70,0.00,CLR,,0.00,WeatherDisplay:10.37,2013-02-02 21:42:00,
2013-02-02 16:43:00,21.2,12.9,29.84,WNW,292,0.0,0.0,70,0.00,CLR,,0.00,WeatherDisplay:10.37,2013-02-02 21:43:00,
2013-02-02 16:44:00,21.2,12.9,29.84,West,270,0.0,0.0,70,0.00,CLR,,0.00,WeatherDisplay:10.37,2013-02-02 21:44:00,
2013-02-02 16:46:00,21.2,12.9,29.84,WNW,292,0.0,0.0,70,0.00,CLR,,0.00,WeatherDisplay:10.37,2013-02-02 21:46:00,
2013-02-02 16:48:00,21.0,12.8,29.84,NW,315,0.0,0.0,70,0.00,CLR,,0.00,WeatherDisplay:10.37,2013-02-02 21:48:00,
2013-02-02 16:49:00,21.0,12.8,29.84,NNW,338,0.0,0.0,70,0.00,CLR,,0.00,WeatherDisplay:10.37,2013-02-02 21:49:00,
2013-02-02 16:51:00,21.0,12.8,29.84,WNW,292,0.0,0.0,70,0.00,CLR,,0.00,WeatherDisplay:10.37,2013-02-02 21:51:00,
2013-02-02 16:53:00,20.8,12.9,29.84,WNW,292,0.0,0.0,71,0.00,CLR,,0.00,WeatherDisplay:10.37,2013-02-02 21:53:00,
2013-02-02 16:54:00,20.8,12.9,29.84,WNW,292,0.0,0.0,71,0.00,CLR,,0.00,WeatherDisplay:10.37,2013-02-02 21:54:00,
2013-02-02 16:57:00,20.8,12.9,29.84,NNW,338,0.0,0.0,71,0.00,CLR,,0.00,WeatherDisplay:10.37,2013-02-02 21:57:00,
2013-02-02 16:58:00,20.8,12.9,29.84,NW,315,0.0,0.0,71,0.00,CLR,,0.00,WeatherDisplay:10.37,2013-02-02 21:58:00,
2013-02-02 16:59:00,20.8,12.9,29.84,WNW,292,0.0,0.0,71,0.00,CLR,,0.00,WeatherDisplay:10.37,2013-02-02 21:59:00,
2013-02-02 17:02:00,20.8,12.9,29.84,NNE,22,0.0,0.0,71,0.00,CLR,,0.00,WeatherDisplay:10.37,2013-02-02 22:02:00,
2013-02-02 17:03:00,20.8,12.9,29.84,WNW,292,0.0,0.0,71,0.00,CLR,,0.00,WeatherDisplay:10.37,2013-02-02 22:03:00,
2013-02-02 17:04:00,20.8,12.9,29.84,WNW,292,0.0,0.0,71,0.00,CLR,,0.00,WeatherDisplay:10.37,2013-02-02 22:04:00,
2013-02-02 17:07:00,20.8,13.2,29.84,NW,315,0.0,0.0,72,0.00,CLR,,0.00,WeatherDisplay:10.37,2013-02-02 22:07:00,
2013-02-02 17:08:00,20.8,12.9,29.84,WSW,248,0.0,0.0,71,0.00,CLR,,0.00,WeatherDisplay:10.37,2013-02-02 22:08:00,
2013-02-02 17:09:00,20.7,12.7,29.84,WNW,292,0.0,0.0,71,0.00,CLR,,0.00,WeatherDisplay:10.37,2013-02-02 22:09:00,
2013-02-02 17:12:00,20.7,12.7,29.84,WSW,248,0.0,0.0,71,0.00,CLR,,0.00,WeatherDisplay:10.37,2013-02-02 22:12:00,
2013-02-02 17:13:00,20.7,12.7,29.84,WNW,292,0.0,0.0,71,0.00,CLR,,0.00,WeatherDisplay:10.37,2013-02-02 22:13:00,
2013-02-02 17:14:00,20.7,12.7,29.84,WNW,292,0.0,0.0,71,0.00,CLR,,0.00,WeatherDisplay:10.37,2013-02-02 22:14:00,
2013-02-02 17:17:00,20.7,12.7,29.84,WNW,292,0.0,0.0,71,0.00,CLR,,0.00,WeatherDisplay:10.37,2013-02-02 22:17:00,
2013-02-02 17:18:00,20.7,12.7,29.84,WNW,292,0.0,0.0,71,0.00,CLR,,0.00,WeatherDisplay:10.37,2013-02-02 22:18:00,
2013-02-02 17:19:00,20.7,12.7,29.84,WSW,248,0.0,0.0,71,0.00,CLR,,0.00,WeatherDisplay:10.37,2013-02-02 22:19:00,
2013-02-02 17:22:00,20.5,12.9,29.84,WSW,248,0.0,0.0,72,0.00,CLR,,0.00,WeatherDisplay:10.37,2013-02-02 22:22:00,
2013-02-02 17:23:00,20.5,12.9,29.84,WNW,292,0.0,0.0,72,0.00,CLR,,0.00,WeatherDisplay:10.37,2013-02-02 22:23:00,
2013-02-02 17:24:00,20.5,12.9,29.84,WSW,248,0.0,0.0,72,0.00,CLR,,0.00,WeatherDisplay:10.37,2013-02-02 22:24:00,
2013-02-02 17:27:00,20.5,12.9,29.84,WNW,292,0.0,0.0,72,0.00,CLR,,0.00,WeatherDisplay:10.37,2013-02-02 22:27:00,
2013-02-02 17:29:00,20.5,12.9,29.84,WSW,248,0.0,0.0,72,0.00,CLR,,0.00,WeatherDisplay:10.37,2013-02-02 22:29:00,
2013-02-02 17:32:00,20.5,13.2,29.84,West,270,0.0,0.0,73,0.00,CLR,,0.00,WeatherDisplay:10.37,2013-02-02 22:32:00,
2013-02-02 17:34:00,20.5,13.2,29.84,West,270,0.0,0.0,73,0.00,CLR,,0.00,WeatherDisplay:10.37,2013-02-02 22:34:00,
2013-02-02 17:37:00,20.3,13.3,29.84,NW,315,0.0,0.0,74,0.00,CLR,,0.00,WeatherDisplay:10.37,2013-02-02 22:37:00,
2013-02-02 17:39:00,20.3,13.3,29.84,West,270,0.0,0.0,74,0.00,CLR,,0.00,WeatherDisplay:10.37,2013-02-02 22:39:00,
2013-02-02 17:42:00,20.3,13.3,29.84,WNW,292,0.0,0.0,74,0.00,CLR,,0.00,WeatherDisplay:10.37,2013-02-02 22:42:00,
2013-02-02 17:44:00,20.3,13.3,29.84,WNW,292,0.0,0.0,74,0.00,CLR,,0.00,WeatherDisplay:10.37,2013-02-02 22:44:00,
2013-02-02 17:47:00,20.3,13.3,29.84,WNW,292,0.0,0.0,74,0.00,CLR,,0.00,WeatherDisplay:10.37,2013-02-02 22:47:00,
2013-02-02 17:49:00,20.3,13.6,29.84,West,270,0.0,0.0,75,0.00,CLR,,0.00,WeatherDisplay:10.37,2013-02-02 22:49:00,
2013-02-02 17:50:00,20.3,13.6,29.84,East,90,0.0,0.0,75,0.00,CLR,,0.00,WeatherDisplay:10.37,2013-02-02 22:50:00,
2013-02-02 17:52:00,20.3,13.6,29.84,WSW,248,0.0,0.0,75,0.00,CLR,,0.00,WeatherDisplay:10.37,2013-02-02 22:52:00,
2013-02-02 17:54:00,20.3,13.6,29.84,West,270,0.0,0.0,75,0.00,CLR,,0.00,WeatherDisplay:10.37,2013-02-02 22:54:00,
2013-02-02 17:55:00,20.3,13.6,29.84,West,270,0.0,0.0,75,0.00,CLR,,0.00,WeatherDisplay:10.37,2013-02-02 22:55:00,
2013-02-02 17:57:00,20.3,13.6,29.84,West,270,0.0,0.0,75,0.00,CLR,,0.00,WeatherDisplay:10.37,2013-02-02 22:57:00,
2013-02-02 17:59:00,20.3,13.6,29.84,WNW,292,0.0,0.0,75,0.00,CLR,,0.00,WeatherDisplay:10.37,2013-02-02 22:59:00,
2013-02-02 18:00:00,20.3,13.6,29.84,West,270,0.0,0.0,75,0.00,CLR,,0.00,WeatherDisplay:10.37,2013-02-02 23:00:00,
2013-02-02 18:02:00,20.3,13.6,29.84,NNW,338,0.0,0.0,75,0.00,CLR,,0.00,WeatherDisplay:10.37,2013-02-02 23:02:00,
2013-02-02 18:04:00,20.3,13.6,29.84,NW,315,0.0,0.0,75,0.00,CLR,,0.00,WeatherDisplay:10.37,2013-02-02 23:04:00,
2013-02-02 18:05:00,20.3,13.6,29.84,WNW,292,0.0,0.0,75,0.00,CLR,,0.00,WeatherDisplay:10.37,2013-02-02 23:05:00,
2013-02-02 18:07:00,20.3,13.9,29.84,WNW,292,0.0,0.0,76,0.00,CLR,,0.00,WeatherDisplay:10.37,2013-02-02 23:07:00,
2013-02-02 18:09:00,20.3,13.9,29.84,WNW,292,0.0,0.0,76,0.00,CLR,,0.00,WeatherDisplay:10.37,2013-02-02 23:09:00,
2013-02-02 18:10:00,20.3,13.9,29.84,WNW,292,0.0,0.0,76,0.00,CLR,,0.00,WeatherDisplay:10.37,2013-02-02 23:10:00,
2013-02-02 18:13:00,20.3,13.9,29.84,WSW,248,0.0,0.0,76,0.00,CLR,,0.00,WeatherDisplay:10.37,2013-02-02 23:13:00,
2013-02-02 18:14:00,20.3,13.9,29.84,NW,315,0.0,0.0,76,0.00,CLR,,0.00,WeatherDisplay:10.37,2013-02-02 23:14:00,
2013-02-02 18:15:00,20.3,13.9,29.84,West,270,0.0,0.0,76,0.00,CLR,,0.00,WeatherDisplay:10.37,2013-02-02 23:15:00,
2013-02-02 18:18:00,20.3,14.2,29.84,WNW,292,0.0,0.0,77,0.00,CLR,,0.00,WeatherDisplay:10.37,2013-02-02 23:18:00,
2013-02-02 18:19:00,20.3,14.2,29.84,NNW,338,0.0,0.0,77,0.00,CLR,,0.00,WeatherDisplay:10.37,2013-02-02 23:19:00,
2013-02-02 18:20:00,20.3,14.2,29.84,NNW,338,0.0,0.0,77,0.00,CLR,,0.00,WeatherDisplay:10.37,2013-02-02 23:20:00,
2013-02-02 18:21:00,20.3,14.2,29.84,WNW,292,0.0,0.0,77,0.00,CLR,,0.00,WeatherDisplay:10.37,2013-02-02 23:21:00,
2013-02-02 18:23:00,20.3,14.2,29.84,West,270,0.0,0.0,77,0.00,CLR,,0.00,WeatherDisplay:10.37,2013-02-02 23:23:00,
2013-02-02 18:24:00,20.3,14.2,29.84,WSW,248,0.0,0.0,77,0.00,CLR,,0.00,WeatherDisplay:10.37,2013-02-02 23:24:00,
2013-02-02 18:25:00,20.3,14.2,29.84,West,270,0.0,0.0,77,0.00,CLR,,0.00,WeatherDisplay:10.37,2013-02-02 23:25:00,
2013-02-02 18:26:00,20.3,14.2,29.84,West,270,0.0,0.0,77,0.00,CLR,,0.00,WeatherDisplay:10.37,2013-02-02 23:26:00,
2013-02-02 18:28:00,20.3,14.5,29.84,WNW,292,0.0,0.0,78,0.00,CLR,,0.00,WeatherDisplay:10.37,2013-02-02 23:28:00,
2013-02-02 18:29:00,20.3,14.5,29.84,NNE,22,0.0,0.0,78,0.00,CLR,,0.00,WeatherDisplay:10.37,2013-02-02 23:29:00,
2013-02-02 18:30:00,20.3,14.5,29.84,WSW,248,0.0,0.0,78,0.00,CLR,,0.00,WeatherDisplay:10.37,2013-02-02 23:30:00,
2013-02-02 18:32:00,20.3,14.5,29.84,WSW,248,0.0,0.0,78,0.00,CLR,,0.00,WeatherDisplay:10.37,2013-02-02 23:32:00,
2013-02-02 18:33:00,20.1,14.4,29.84,WNW,292,0.0,0.0,78,0.00,CLR,,0.00,WeatherDisplay:10.37,2013-02-02 23:33:00,
2013-02-02 18:34:00,20.1,14.4,29.84,WNW,292,0.0,0.0,78,0.00,CLR,,0.00,WeatherDisplay:10.37,2013-02-02 23:34:00,
2013-02-02 18:35:00,20.1,14.4,29.84,WSW,248,0.0,0.0,78,0.00,CLR,,0.00,WeatherDisplay:10.37,2013-02-02 23:35:00,
2013-02-02 18:37:00,20.1,14.4,29.87,WNW,292,0.0,0.0,78,0.00,CLR,,0.00,WeatherDisplay:10.37,2013-02-02 23:37:00,
2013-02-02 18:38:00,20.1,14.4,29.87,WNW,292,0.0,0.0,78,0.00,CLR,,0.00,WeatherDisplay:10.37,2013-02-02 23:38:00,
2013-02-02 18:39:00,20.1,14.4,29.87,West,270,0.0,0.0,78,0.00,CLR,,0.00,WeatherDisplay:10.37,2013-02-02 23:39:00,
2013-02-02 18:40:00,20.1,14.4,29.87,WNW,292,0.0,0.0,78,0.00,CLR,,0.00,WeatherDisplay:10.37,2013-02-02 23:40:00,
2013-02-02 18:42:00,20.1,14.4,29.87,WSW,248,0.0,0.0,78,0.00,CLR,,0.00,WeatherDisplay:10.37,2013-02-02 23:42:00,
2013-02-02 18:43:00,20.1,14.4,29.87,West,270,0.0,0.0,78,0.00,CLR,,0.00,WeatherDisplay:10.37,2013-02-02 23:43:00,
2013-02-02 18:44:00,20.1,14.4,29.87,SW,225,0.0,0.0,78,0.00,CLR,,0.00,WeatherDisplay:10.37,2013-02-02 23:44:00,
2013-02-02 18:45:00,20.1,14.4,29.87,West,270,0.0,0.0,78,0.00,CLR,,0.00,WeatherDisplay:10.37,2013-02-02 23:45:00,
2013-02-02 18:47:00,20.1,14.4,29.87,NNW,338,0.0,0.0,78,0.00,CLR,,0.00,WeatherDisplay:10.37,2013-02-02 23:47:00,
2013-02-02 18:48:00,20.1,14.4,29.87,WNW,292,0.0,0.0,78,0.00,CLR,,0.00,WeatherDisplay:10.37,2013-02-02 23:48:00,
2013-02-02 18:50:00,20.1,14.4,29.87,WSW,248,0.0,0.0,78,0.00,CLR,,0.00,WeatherDisplay:10.37,2013-02-02 23:50:00,
2013-02-02 18:53:00,20.1,14.4,29.84,West,270,0.0,0.0,78,0.00,CLR,,0.00,WeatherDisplay:10.37,2013-02-02 23:53:00,
2013-02-02 18:55:00,20.1,14.4,29.84,West,270,0.0,0.0,78,0.00,CLR,,0.00,WeatherDisplay:10.37,2013-02-02 23:55:00,
2013-02-02 18:58:00,20.1,14.4,29.84,WNW,292,0.0,0.0,78,0.00,CLR,,0.00,WeatherDisplay:10.37,2013-02-02 23:58:00,
2013-02-02 19:00:00,20.1,14.4,29.84,WNW,292,0.0,0.0,78,0.00,CLR,,0.00,WeatherDisplay:10.37,2013-02-03 00:00:00,
2013-02-02 19:03:00,20.1,14.4,29.84,West,270,0.0,0.0,78,0.00,CLR,,0.00,WeatherDisplay:10.37,2013-02-03 00:03:00,
2013-02-02 19:05:00,20.1,14.4,29.84,NNW,338,0.0,0.0,78,0.00,CLR,,0.00,WeatherDisplay:10.37,2013-02-03 00:05:00,
2013-02-02 19:08:00,20.1,14.4,29.84,WNW,292,0.0,0.0,78,0.00,CLR,,0.00,WeatherDisplay:10.37,2013-02-03 00:08:00,
2013-02-02 19:09:00,20.1,14.4,29.84,WSW,248,0.0,0.0,78,0.00,CLR,,0.00,WeatherDisplay:10.37,2013-02-03 00:09:00,
2013-02-02 19:10:00,20.1,14.1,29.84,NNW,338,0.0,0.0,77,0.00,CLR,,0.00,WeatherDisplay:10.37,2013-02-03 00:10:00,
2013-02-02 19:11:00,20.1,14.1,29.84,WNW,292,0.0,0.0,77,0.00,CLR,,0.00,WeatherDisplay:10.37,2013-02-03 00:11:00,
2013-02-02 19:13:00,20.1,14.1,29.84,West,270,0.0,0.0,77,0.00,CLR,,0.00,WeatherDisplay:10.37,2013-02-03 00:13:00,
2013-02-02 19:14:00,20.1,14.1,29.84,SW,225,0.0,0.0,77,0.00,CLR,,0.00,WeatherDisplay:10.37,2013-02-03 00:14:00,
2013-02-02 19:15:00,20.1,14.1,29.84,WNW,292,0.0,0.0,77,0.00,CLR,,0.00,WeatherDisplay:10.37,2013-02-03 00:15:00,
2013-02-02 19:16:00,20.1,14.1,29.84,West,270,0.0,0.0,77,0.00,CLR,,0.00,WeatherDisplay:10.37,2013-02-03 00:16:00,
2013-02-02 19:18:00,20.1,14.1,29.84,WNW,292,0.0,0.0,77,0.00,CLR,,0.00,WeatherDisplay:10.37,2013-02-03 00:18:00,
2013-02-02 19:19:00,20.1,14.1,29.84,West,270,0.0,0.0,77,0.00,CLR,,0.00,WeatherDisplay:10.37,2013-02-03 00:19:00,
2013-02-02 19:20:00,20.1,14.1,29.84,WNW,292,0.0,0.0,77,0.00,CLR,,0.00,WeatherDisplay:10.37,2013-02-03 00:20:00,
2013-02-02 19:21:00,20.1,14.1,29.84,WNW,292,0.0,0.0,77,0.00,CLR,,0.00,WeatherDisplay:10.37,2013-02-03 00:21:00,
2013-02-02 19:23:00,20.1,14.4,29.84,WNW,292,0.0,0.0,78,0.00,CLR,,0.00,WeatherDisplay:10.37,2013-02-03 00:23:00,
2013-02-02 19:24:00,20.1,14.4,29.84,WSW,248,0.0,0.0,78,0.00,CLR,,0.00,WeatherDisplay:10.37,2013-02-03 00:24:00,
2013-02-02 19:25:00,19.9,14.2,29.84,West,270,0.0,0.0,78,0.00,CLR,,0.00,WeatherDisplay:10.37,2013-02-03 00:25:00,
2013-02-02 19:26:00,19.9,14.2,29.84,West,270,0.0,0.0,78,0.00,CLR,,0.00,WeatherDisplay:10.37,2013-02-03 00:26:00,
2013-02-02 19:29:00,19.9,13.9,29.84,NNW,338,0.0,0.0,77,0.00,CLR,,0.00,WeatherDisplay:10.37,2013-02-03 00:29:00,
2013-02-02 19:31:00,19.9,13.9,29.84,West,270,0.0,0.0,77,0.00,CLR,,0.00,WeatherDisplay:10.37,2013-02-03 00:31:00,
2013-02-02 19:34:00,19.9,13.9,29.84,West,270,0.0,0.0,77,0.00,CLR,,0.00,WeatherDisplay:10.37,2013-02-03 00:34:00,
2013-02-02 19:36:00,19.9,14.2,29.84,WNW,292,0.0,0.0,78,0.00,CLR,,0.00,WeatherDisplay:10.37,2013-02-03 00:36:00,
2013-02-02 19:37:00,19.9,14.2,29.84,WSW,248,0.0,0.0,78,0.00,CLR,,0.00,WeatherDisplay:10.37,2013-02-03 00:37:00,
2013-02-02 19:39:00,19.9,14.2,29.84,WNW,292,0.0,0.0,78,0.00,CLR,,0.00,WeatherDisplay:10.37,2013-02-03 00:39:00,
2013-02-02 19:41:00,19.9,14.2,29.84,WNW,292,0.0,0.0,78,0.00,CLR,,0.00,WeatherDisplay:10.37,2013-02-03 00:41:00,
2013-02-02 19:42:00,19.9,14.2,29.84,WNW,292,0.0,0.0,78,0.00,CLR,,0.00,WeatherDisplay:10.37,2013-02-03 00:42:00,
2013-02-02 19:44:00,19.9,14.2,29.84,WSW,248,0.0,0.0,78,0.00,CLR,,0.00,WeatherDisplay:10.37,2013-02-03 00:44:00,
2013-02-02 19:46:00,19.9,14.2,29.84,West,270,0.0,0.0,78,0.00,CLR,,0.00,WeatherDisplay:10.37,2013-02-03 00:46:00,
2013-02-02 19:47:00,19.9,14.2,29.84,West,270,0.0,0.0,78,0.00,CLR,,0.00,WeatherDisplay:10.37,2013-02-03 00:47:00,
2013-02-02 19:49:00,19.8,14.0,29.84,WNW,292,0.0,0.0,78,0.00,CLR,,0.00,WeatherDisplay:10.37,2013-02-03 00:49:00,
2013-02-02 19:51:00,19.9,14.2,29.84,West,270,0.0,0.0,78,0.00,CLR,,0.00,WeatherDisplay:10.37,2013-02-03 00:51:00,
2013-02-02 19:52:00,19.9,14.2,29.84,West,270,0.0,0.0,78,0.00,CLR,,0.00,WeatherDisplay:10.37,2013-02-03 00:52:00,
2013-02-02 19:54:00,19.8,14.0,29.84,WNW,292,0.0,0.0,78,0.00,CLR,,0.00,WeatherDisplay:10.37,2013-02-03 00:54:00,
2013-02-02 19:57:00,19.8,13.7,29.84,WNW,292,0.0,0.0,77,0.00,CLR,,0.00,WeatherDisplay:10.37,2013-02-03 00:57:00,
2013-02-02 19:59:00,19.8,13.7,29.84,WNW,292,0.0,0.0,77,0.00,CLR,,0.00,WeatherDisplay:10.37,2013-02-03 00:59:00,
2013-02-02 20:02:00,19.8,14.0,29.84,West,270,0.0,0.0,78,0.00,CLR,,0.00,WeatherDisplay:10.37,2013-02-03 01:02:00,
2013-02-02 20:04:00,19.8,14.0,29.84,NNW,338,0.0,0.0,78,0.00,CLR,,0.00,WeatherDisplay:10.37,2013-02-03 01:04:00,
2013-02-02 20:07:00,19.6,13.8,29.84,North,0,0.0,0.0,78,0.00,CLR,,0.00,WeatherDisplay:10.37,2013-02-03 01:07:00,
2013-02-02 20:09:00,19.6,13.8,29.84,WNW,292,0.0,0.0,78,0.00,CLR,,0.00,WeatherDisplay:10.37,2013-02-03 01:09:00,
2013-02-02 20:12:00,19.6,13.8,29.84,West,270,0.0,0.0,78,0.00,CLR,,0.00,WeatherDisplay:10.37,2013-02-03 01:12:00,
2013-02-02 20:14:00,19.6,13.8,29.84,West,270,0.0,0.0,78,0.00,CLR,,0.00,WeatherDisplay:10.37,2013-02-03 01:14:00,
2013-02-02 20:17:00,19.6,13.8,29.84,WSW,248,0.0,0.0,78,0.00,CLR,,0.00,WeatherDisplay:10.37,2013-02-03 01:17:00,
2013-02-02 20:19:00,19.6,13.8,29.84,SW,225,0.0,0.0,78,0.00,CLR,,0.00,WeatherDisplay:10.37,2013-02-03 01:19:00,
2013-02-02 20:22:00,19.6,13.8,29.84,NNW,338,0.0,0.0,78,0.00,CLR,,0.00,WeatherDisplay:10.37,2013-02-03 01:22:00,
2013-02-02 20:24:00,19.6,13.8,29.84,WNW,292,0.0,0.0,78,0.00,CLR,,0.00,WeatherDisplay:10.37,2013-02-03 01:24:00,
2013-02-02 20:27:00,19.4,13.7,29.84,West,270,0.0,0.0,78,0.00,CLR,,0.00,WeatherDisplay:10.37,2013-02-03 01:27:00,
2013-02-02 20:29:00,19.4,13.9,29.84,NW,315,0.0,0.0,79,0.00,CLR,,0.00,WeatherDisplay:10.37,2013-02-03 01:29:00,
2013-02-02 20:30:00,19.4,13.9,29.84,WNW,292,0.0,0.0,79,0.00,CLR,,0.00,WeatherDisplay:10.37,2013-02-03 01:30:00,
2013-02-02 20:32:00,19.2,13.5,29.84,WNW,292,0.0,0.0,78,0.00,CLR,,0.00,WeatherDisplay:10.37,2013-02-03 01:32:00,
2013-02-02 20:34:00,19.2,13.5,29.84,West,270,0.0,0.0,78,0.00,CLR,,0.00,WeatherDisplay:10.37,2013-02-03 01:34:00,
2013-02-02 20:35:00,19.2,13.5,29.84,West,270,0.0,0.0,78,0.00,CLR,,0.00,WeatherDisplay:10.37,2013-02-03 01:35:00,
2013-02-02 20:37:00,19.2,13.8,29.84,West,270,0.0,0.0,79,0.00,CLR,,0.00,WeatherDisplay:10.37,2013-02-03 01:37:00,
2013-02-02 20:39:00,19.2,13.8,29.84,WNW,292,0.0,0.0,79,0.00,CLR,,0.00,WeatherDisplay:10.37,2013-02-03 01:39:00,
2013-02-02 20:40:00,19.2,13.8,29.84,WNW,292,0.0,0.0,79,0.00,CLR,,0.00,WeatherDisplay:10.37,2013-02-03 01:40:00,
2013-02-02 20:42:00,19.2,13.8,29.84,NW,315,0.0,0.0,79,0.00,CLR,,0.00,WeatherDisplay:10.37,2013-02-03 01:42:00,
2013-02-02 20:43:00,19.2,13.8,29.84,WNW,292,0.0,0.0,79,0.00,CLR,,0.00,WeatherDisplay:10.37,2013-02-03 01:43:00,
2013-02-02 20:44:00,19.0,13.6,29.84,NNW,338,0.0,0.0,79,0.00,CLR,,0.00,WeatherDisplay:10.37,2013-02-03 01:44:00,
2013-02-02 20:45:00,19.0,13.6,29.84,North,0,0.0,0.0,79,0.00,CLR,,0.00,WeatherDisplay:10.37,2013-02-03 01:45:00,
2013-02-02 20:47:00,19.0,13.6,29.84,West,270,0.0,0.0,79,0.00,CLR,,0.00,WeatherDisplay:10.37,2013-02-03 01:47:00,
2013-02-02 20:48:00,19.0,13.6,29.84,West,270,0.0,0.0,79,0.00,CLR,,0.00,WeatherDisplay:10.37,2013-02-03 01:48:00,
2013-02-02 20:49:00,19.0,13.6,29.84,WNW,292,0.0,0.0,79,0.00,CLR,,0.00,WeatherDisplay:10.37,2013-02-03 01:49:00,
2013-02-02 20:50:00,18.9,13.1,29.84,West,270,0.0,0.0,78,0.00,CLR,,0.00,WeatherDisplay:10.37,2013-02-03 01:50:00,
2013-02-02 20:52:00,18.9,13.1,29.84,WNW,292,0.0,0.0,78,0.00,CLR,,0.00,WeatherDisplay:10.37,2013-02-03 01:52:00,
2013-02-02 20:53:00,18.9,13.1,29.84,WNW,292,0.0,0.0,78,0.00,CLR,,0.00,WeatherDisplay:10.37,2013-02-03 01:53:00,
2013-02-02 20:54:00,18.7,13.0,29.84,West,270,0.0,0.0,78,0.00,CLR,,0.00,WeatherDisplay:10.37,2013-02-03 01:54:00,
2013-02-02 20:55:00,18.7,13.0,29.84,West,270,0.0,0.0,78,0.00,CLR,,0.00,WeatherDisplay:10.37,2013-02-03 01:55:00,
2013-02-02 20:57:00,18.7,13.0,29.84,WNW,292,0.0,0.0,78,0.00,CLR,,0.00,WeatherDisplay:10.37,2013-02-03 01:57:00,
2013-02-02 20:58:00,18.7,13.0,29.84,WNW,292,0.0,0.0,78,0.00,CLR,,0.00,WeatherDisplay:10.37,2013-02-03 01:58:00,
2013-02-02 20:59:00,18.7,13.0,29.84,WSW,248,0.0,0.0,78,0.00,CLR,,0.00,WeatherDisplay:10.37,2013-02-03 01:59:00,
2013-02-02 21:00:00,18.7,13.0,29.84,WSW,248,0.0,0.0,78,0.00,CLR,,0.00,WeatherDisplay:10.37,2013-02-03 02:00:00,
2013-02-02 21:02:00,18.7,13.2,29.84,North,0,0.0,0.0,79,0.00,CLR,,0.00,WeatherDisplay:10.37,2013-02-03 02:02:00,
2013-02-02 21:03:00,18.5,13.1,29.84,WNW,292,0.0,0.0,79,0.00,CLR,,0.00,WeatherDisplay:10.37,2013-02-03 02:03:00,
2013-02-02 21:04:00,18.5,12.8,29.84,NW,315,0.0,0.0,78,0.00,CLR,,0.00,WeatherDisplay:10.37,2013-02-03 02:04:00,
2013-02-02 21:05:00,18.5,12.8,29.84,WNW,292,0.0,0.0,78,0.00,CLR,,0.00,WeatherDisplay:10.37,2013-02-03 02:05:00,
2013-02-02 21:07:00,18.5,12.8,29.84,WNW,292,0.0,0.0,78,0.00,CLR,,0.00,WeatherDisplay:10.37,2013-02-03 02:07:00,
2013-02-02 21:08:00,18.3,12.6,29.84,WNW,292,0.0,0.0,78,0.00,CLR,,0.00,WeatherDisplay:10.37,2013-02-03 02:08:00,
2013-02-02 21:09:00,18.3,12.6,29.84,WNW,292,0.0,0.0,78,0.00,CLR,,0.00,WeatherDisplay:10.37,2013-02-03 02:09:00,
2013-02-02 21:10:00,18.3,12.6,29.84,WSW,248,0.0,0.0,78,0.00,CLR,,0.00,WeatherDisplay:10.37,2013-02-03 02:10:00,
2013-02-02 21:12:00,18.1,12.4,29.84,West,270,0.0,0.0,78,0.00,CLR,,0.00,WeatherDisplay:10.37,2013-02-03 02:12:00,
2013-02-02 21:13:00,18.1,12.4,29.84,WNW,292,0.0,0.0,78,0.00,CLR,,0.00,WeatherDisplay:10.37,2013-02-03 02:13:00,
2013-02-02 21:14:00,18.1,12.4,29.84,West,270,0.0,0.0,78,0.00,CLR,,0.00,WeatherDisplay:10.37,2013-02-03 02:14:00,
2013-02-02 21:15:00,18.1,12.4,29.84,West,270,0.0,0.0,78,0.00,CLR,,0.00,WeatherDisplay:10.37,2013-02-03 02:15:00,
2013-02-02 21:17:00,18.1,12.7,29.84,West,270,0.0,0.0,79,0.00,CLR,,0.00,WeatherDisplay:10.37,2013-02-03 02:17:00,
2013-02-02 21:18:00,18.1,12.7,29.84,West,270,0.0,0.0,79,0.00,CLR,,0.00,WeatherDisplay:10.37,2013-02-03 02:18:00,
2013-02-02 21:19:00,18.1,12.7,29.84,WSW,248,0.0,0.0,79,0.00,CLR,,0.00,WeatherDisplay:10.37,2013-02-03 02:19:00,
2013-02-02 21:21:00,18.1,12.7,29.84,West,270,0.0,0.0,79,0.00,CLR,,0.00,WeatherDisplay:10.37,2013-02-03 02:21:00,
2013-02-02 21:23:00,18.0,12.5,29.84,WNW,292,0.0,0.0,79,0.00,CLR,,0.00,WeatherDisplay:10.37,2013-02-03 02:23:00,
2013-02-02 21:25:00,18.0,12.5,29.84,WNW,292,0.0,0.0,79,0.00,CLR,,0.00,WeatherDisplay:10.37,2013-02-03 02:25:00,
2013-02-02 21:26:00,18.0,12.5,29.84,WSW,248,0.0,0.0,79,0.00,CLR,,0.00,WeatherDisplay:10.37,2013-02-03 02:26:00,
2013-02-02 21:28:00,17.8,12.7,29.84,NNW,338,0.0,0.0,80,0.00,CLR,,0.00,WeatherDisplay:10.37,2013-02-03 02:28:00,
2013-02-02 21:30:00,17.8,12.7,29.84,WNW,292,0.0,0.0,80,0.00,CLR,,0.00,WeatherDisplay:10.37,2013-02-03 02:30:00,
2013-02-02 21:31:00,17.8,12.7,29.84,WSW,248,0.0,0.0,80,0.00,CLR,,0.00,WeatherDisplay:10.37,2013-02-03 02:31:00,
2013-02-02 21:33:00,17.8,12.7,29.84,NNW,338,0.0,0.0,80,0.00,CLR,,0.00,WeatherDisplay:10.37,2013-02-03 02:33:00,
2013-02-02 21:34:00,17.8,12.7,29.84,North,0,0.0,0.0,80,0.00,CLR,,0.00,WeatherDisplay:10.37,2013-02-03 02:34:00,
2013-02-02 21:35:00,17.8,12.7,29.84,WSW,248,0.0,0.0,80,0.00,CLR,,0.00,WeatherDisplay:10.37,2013-02-03 02:35:00,
2013-02-02 21:36:00,17.8,12.7,29.84,WNW,292,0.0,0.0,80,0.00,CLR,,0.00,WeatherDisplay:10.37,2013-02-03 02:36:00,
2013-02-02 21:38:00,17.8,12.9,29.81,WNW,292,0.0,0.0,81,0.00,CLR,,0.00,WeatherDisplay:10.37,2013-02-03 02:38:00,
2013-02-02 21:39:00,17.8,12.9,29.81,WNW,292,0.0,0.0,81,0.00,CLR,,0.00,WeatherDisplay:10.37,2013-02-03 02:39:00,
2013-02-02 21:40:00,17.8,12.9,29.81,WNW,292,0.0,0.0,81,0.00,CLR,,0.00,WeatherDisplay:10.37,2013-02-03 02:40:00,
2013-02-02 21:41:00,17.8,12.9,29.81,NNW,338,0.0,0.0,81,0.00,CLR,,0.00,WeatherDisplay:10.37,2013-02-03 02:41:00,
2013-02-02 21:43:00,17.6,12.8,29.81,West,270,0.0,0.0,81,0.00,CLR,,0.00,WeatherDisplay:10.37,2013-02-03 02:43:00,
2013-02-02 21:44:00,17.6,12.8,29.81,West,270,0.0,0.0,81,0.00,CLR,,0.00,WeatherDisplay:10.37,2013-02-03 02:44:00,
2013-02-02 21:45:00,17.6,12.8,29.81,WNW,292,0.0,0.0,81,0.00,CLR,,0.00,WeatherDisplay:10.37,2013-02-03 02:45:00,
2013-02-02 21:46:00,17.6,12.8,29.81,WNW,292,0.0,0.0,81,0.00,CLR,,0.00,WeatherDisplay:10.37,2013-02-03 02:46:00,
2013-02-02 21:48:00,17.6,12.8,29.81,WNW,292,0.0,0.0,81,0.00,CLR,,0.00,WeatherDisplay:10.37,2013-02-03 02:48:00,
2013-02-02 21:49:00,17.6,12.8,29.81,WNW,292,0.0,0.0,81,0.00,CLR,,0.00,WeatherDisplay:10.37,2013-02-03 02:49:00,
2013-02-02 21:50:00,17.6,12.8,29.81,WNW,292,0.0,0.0,81,0.00,CLR,,0.00,WeatherDisplay:10.37,2013-02-03 02:50:00,
2013-02-02 21:51:00,17.6,12.8,29.81,West,270,0.0,0.0,81,0.00,CLR,,0.00,WeatherDisplay:10.37,2013-02-03 02:51:00,
2013-02-02 21:53:00,17.6,12.8,29.84,WNW,292,0.0,0.0,81,0.00,CLR,,0.00,WeatherDisplay:10.37,2013-02-03 02:53:00,
2013-02-02 21:54:00,17.8,12.9,29.84,NW,315,0.0,0.0,81,0.00,CLR,,0.00,WeatherDisplay:10.37,2013-02-03 02:54:00,
2013-02-02 21:55:00,17.8,12.9,29.84,WSW,248,0.0,0.0,81,0.00,CLR,,0.00,WeatherDisplay:10.37,2013-02-03 02:55:00,
2013-02-02 21:56:00,17.8,12.9,29.84,West,270,0.0,0.0,81,0.00,CLR,,0.00,WeatherDisplay:10.37,2013-02-03 02:56:00,
2013-02-02 21:59:00,17.8,13.2,29.84,West,270,0.0,0.0,82,0.00,CLR,,0.00,WeatherDisplay:10.37,2013-02-03 02:59:00,
2013-02-02 22:00:00,17.8,13.2,29.84,NW,315,0.0,0.0,82,0.00,CLR,,0.00,WeatherDisplay:10.37,2013-02-03 03:00:00,
2013-02-02 22:02:00,17.8,13.2,29.84,WNW,292,0.0,0.0,82,0.00,CLR,,0.00,WeatherDisplay:10.37,2013-02-03 03:02:00,
2013-02-02 22:04:00,17.6,13.0,29.84,WNW,292,0.0,0.0,82,0.00,CLR,,0.00,WeatherDisplay:10.37,2013-02-03 03:04:00,
2013-02-02 22:06:00,17.6,13.0,29.84,West,270,0.0,0.0,82,0.00,CLR,,0.00,WeatherDisplay:10.37,2013-02-03 03:06:00,
2013-02-02 22:07:00,17.6,13.0,29.84,West,270,0.0,0.0,82,0.00,CLR,,0.00,WeatherDisplay:10.37,2013-02-03 03:07:00,
2013-02-02 22:09:00,17.6,13.0,29.84,WNW,292,0.0,0.0,82,0.00,CLR,,0.00,WeatherDisplay:10.37,2013-02-03 03:09:00,
2013-02-02 22:10:00,17.4,12.9,29.84,NW,315,0.0,0.0,82,0.00,CLR,,0.00,WeatherDisplay:10.37,2013-02-03 03:10:00,
2013-02-02 22:11:00,17.4,12.9,29.84,North,0,0.0,0.0,82,0.00,CLR,,0.00,WeatherDisplay:10.37,2013-02-03 03:11:00,
2013-02-02 22:12:00,17.4,12.9,29.84,North,0,0.0,0.0,82,0.00,CLR,,0.00,WeatherDisplay:10.37,2013-02-03 03:12:00,
2013-02-02 22:14:00,17.2,12.4,29.84,NNE,22,0.0,0.0,81,0.00,CLR,,0.00,WeatherDisplay:10.37,2013-02-03 03:14:00,
2013-02-02 22:15:00,17.4,12.6,29.84,NNE,22,0.0,0.0,81,0.00,CLR,,0.00,WeatherDisplay:10.37,2013-02-03 03:15:00,
2013-02-02 22:16:00,17.4,12.6,29.84,NNE,22,0.0,0.0,81,0.00,CLR,,0.00,WeatherDisplay:10.37,2013-02-03 03:16:00,
2013-02-02 22:17:00,17.4,12.6,29.84,NNW,338,0.0,0.0,81,0.00,CLR,,0.00,WeatherDisplay:10.37,2013-02-03 03:17:00,
2013-02-02 22:19:00,17.2,12.4,29.84,North,0,0.0,0.0,81,0.00,CLR,,0.00,WeatherDisplay:10.37,2013-02-03 03:19:00,
2013-02-02 22:20:00,17.2,12.4,29.84,North,0,0.0,0.0,81,0.00,CLR,,0.00,WeatherDisplay:10.37,2013-02-03 03:20:00,
2013-02-02 22:21:00,17.2,12.4,29.84,WNW,292,0.0,0.0,81,0.00,CLR,,0.00,WeatherDisplay:10.37,2013-02-03 03:21:00,
2013-02-02 22:22:00,17.2,12.4,29.84,NNW,338,0.0,0.0,81,0.00,CLR,,0.00,WeatherDisplay:10.37,2013-02-03 03:22:00,
2013-02-02 22:24:00,17.2,12.4,29.84,NW,315,0.0,0.0,81,0.00,CLR,,0.00,WeatherDisplay:10.37,2013-02-03 03:24:00,
2013-02-02 22:25:00,17.2,12.4,29.84,NNW,338,0.0,0.0,81,0.00,CLR,,0.00,WeatherDisplay:10.37,2013-02-03 03:25:00,
2013-02-02 22:26:00,17.2,12.4,29.84,WSW,248,0.0,0.0,81,0.00,CLR,,0.00,WeatherDisplay:10.37,2013-02-03 03:26:00,
2013-02-02 22:27:00,17.2,12.4,29.84,NNW,338,0.0,0.0,81,0.00,CLR,,0.00,WeatherDisplay:10.37,2013-02-03 03:27:00,
2013-02-02 22:29:00,17.1,12.2,29.84,NW,315,0.0,0.0,81,0.00,CLR,,0.00,WeatherDisplay:10.37,2013-02-03 03:29:00,
2013-02-02 22:30:00,17.1,12.2,29.84,North,0,0.0,0.0,81,0.00,CLR,,0.00,WeatherDisplay:10.37,2013-02-03 03:30:00,
2013-02-02 22:31:00,17.1,12.2,29.84,WSW,248,0.0,0.0,81,0.00,CLR,,0.00,WeatherDisplay:10.37,2013-02-03 03:31:00,
2013-02-02 22:32:00,17.1,12.2,29.84,West,270,0.0,0.0,81,0.00,CLR,,0.00,WeatherDisplay:10.37,2013-02-03 03:32:00,
2013-02-02 22:34:00,17.1,12.2,29.84,WNW,292,0.0,0.0,81,0.00,CLR,,0.00,WeatherDisplay:10.37,2013-02-03 03:34:00,
2013-02-02 22:36:00,17.1,12.2,29.84,NNW,338,0.0,0.0,81,0.00,CLR,,0.00,WeatherDisplay:10.37,2013-02-03 03:36:00,
2013-02-02 22:37:00,16.9,12.1,29.81,NNW,338,0.0,0.0,81,0.00,CLR,,0.00,WeatherDisplay:10.37,2013-02-03 03:37:00,
2013-02-02 22:40:00,16.9,12.1,29.81,WNW,292,0.0,0.0,81,0.00,CLR,,0.00,WeatherDisplay:10.37,2013-02-03 03:40:00,
2013-02-02 22:41:00,16.9,12.1,29.81,WNW,292,0.0,0.0,81,0.00,CLR,,0.00,WeatherDisplay:10.37,2013-02-03 03:41:00,
2013-02-02 22:42:00,16.9,12.1,29.81,NNW,338,0.0,0.0,81,0.00,CLR,,0.00,WeatherDisplay:10.37,2013-02-03 03:42:00,
2013-02-02 22:45:00,16.9,12.1,29.81,NNE,22,0.0,0.0,81,0.00,CLR,,0.00,WeatherDisplay:10.37,2013-02-03 03:45:00,
2013-02-02 22:46:00,16.9,12.1,29.81,NNW,338,0.0,0.0,81,0.00,CLR,,0.00,WeatherDisplay:10.37,2013-02-03 03:46:00,
2013-02-02 22:48:00,16.7,11.9,29.81,NNW,338,0.0,0.0,81,0.00,CLR,,0.00,WeatherDisplay:10.37,2013-02-03 03:48:00,
2013-02-02 22:50:00,16.7,11.9,29.81,NW,315,0.0,0.0,81,0.00,CLR,,0.00,WeatherDisplay:10.37,2013-02-03 03:50:00,
2013-02-02 22:51:00,16.7,11.9,29.81,NW,315,0.0,0.0,81,0.00,CLR,,0.00,WeatherDisplay:10.37,2013-02-03 03:51:00,
2013-02-02 22:52:00,16.7,11.9,29.81,NW,315,0.0,0.0,81,0.00,CLR,,0.00,WeatherDisplay:10.37,2013-02-03 03:52:00,
2013-02-02 22:53:00,16.7,11.9,29.81,NNW,338,0.0,0.0,81,0.00,CLR,,0.00,WeatherDisplay:10.37,2013-02-03 03:53:00,
2013-02-02 22:55:00,16.7,11.9,29.81,North,0,0.0,0.0,81,0.00,CLR,,0.00,WeatherDisplay:10.37,2013-02-03 03:55:00,
2013-02-02 22:56:00,16.7,11.9,29.81,North,0,0.0,0.0,81,0.00,CLR,,0.00,WeatherDisplay:10.37,2013-02-03 03:56:00,
2013-02-02 22:57:00,16.7,11.9,29.81,NNW,338,0.0,0.0,81,0.00,CLR,,0.00,WeatherDisplay:10.37,2013-02-03 03:57:00,
2013-02-02 22:58:00,16.7,11.9,29.81,NNW,338,0.0,0.0,81,0.00,CLR,,0.00,WeatherDisplay:10.37,2013-02-03 03:58:00,
2013-02-02 23:00:00,16.7,11.9,29.81,NNE,22,0.0,0.0,81,0.00,CLR,,0.00,WeatherDisplay:10.37,2013-02-03 04:00:00,
2013-02-02 23:01:00,16.7,11.9,29.81,NNW,338,0.0,0.0,81,0.00,CLR,,0.00,WeatherDisplay:10.37,2013-02-03 04:01:00,
2013-02-02 23:02:00,16.7,11.9,29.81,NNE,22,0.0,0.0,81,0.00,CLR,,0.00,WeatherDisplay:10.37,2013-02-03 04:02:00,
2013-02-02 23:03:00,16.7,11.9,29.81,NNW,338,0.0,0.0,81,0.00,CLR,,0.00,WeatherDisplay:10.37,2013-02-03 04:03:00,
2013-02-02 23:05:00,16.7,12.2,29.81,NW,315,0.0,0.0,82,0.00,CLR,,0.00,WeatherDisplay:10.37,2013-02-03 04:05:00,
2013-02-02 23:06:00,16.7,12.2,29.81,NNW,338,0.0,0.0,82,0.00,CLR,,0.00,WeatherDisplay:10.37,2013-02-03 04:06:00,
2013-02-02 23:07:00,16.7,12.2,29.81,NNE,22,0.0,0.0,82,0.00,CLR,,0.00,WeatherDisplay:10.37,2013-02-03 04:07:00,
2013-02-02 23:08:00,16.7,12.2,29.81,NW,315,0.0,0.0,82,0.00,CLR,,0.00,WeatherDisplay:10.37,2013-02-03 04:08:00,
2013-02-02 23:10:00,16.9,12.3,29.81,North,0,0.0,0.0,82,0.00,CLR,,0.00,WeatherDisplay:10.37,2013-02-03 04:10:00,
2013-02-02 23:11:00,16.9,12.3,29.81,WNW,292,0.0,0.0,82,0.00,CLR,,0.00,WeatherDisplay:10.37,2013-02-03 04:11:00,
2013-02-02 23:12:00,16.9,12.3,29.81,NNW,338,0.0,0.0,82,0.00,CLR,,0.00,WeatherDisplay:10.37,2013-02-03 04:12:00,
2013-02-02 23:14:00,16.9,12.3,29.81,NNW,338,0.0,0.0,82,0.00,CLR,,0.00,WeatherDisplay:10.37,2013-02-03 04:14:00,
2013-02-02 23:15:00,16.9,12.3,29.81,West,270,0.0,0.0,82,0.00,CLR,,0.00,WeatherDisplay:10.37,2013-02-03 04:15:00,
2013-02-02 23:16:00,16.9,12.3,29.81,North,0,0.0,0.0,82,0.00,CLR,,0.00,WeatherDisplay:10.37,2013-02-03 04:16:00,
2013-02-02 23:17:00,16.9,12.3,29.81,WNW,292,0.0,0.0,82,0.00,CLR,,0.00,WeatherDisplay:10.37,2013-02-03 04:17:00,
2013-02-02 23:19:00,17.1,12.5,29.81,NNW,338,0.0,0.0,82,0.00,CLR,,0.00,WeatherDisplay:10.37,2013-02-03 04:19:00,
2013-02-02 23:20:00,17.1,12.8,29.81,NNW,338,0.0,0.0,83,0.00,CLR,,0.00,WeatherDisplay:10.37,2013-02-03 04:20:00,
2013-02-02 23:22:00,17.1,12.8,29.78,NNW,338,0.0,0.0,83,0.00,CLR,,0.00,WeatherDisplay:10.37,2013-02-03 04:22:00,
2013-02-02 23:24:00,17.1,12.8,29.78,WNW,292,0.0,0.0,83,0.00,CLR,,0.00,WeatherDisplay:10.37,2013-02-03 04:24:00,
2013-02-02 23:25:00,17.1,12.8,29.78,WSW,248,0.0,0.0,83,0.00,CLR,,0.00,WeatherDisplay:10.37,2013-02-03 04:25:00,
2013-02-02 23:27:00,17.2,13.0,29.78,North,0,0.0,0.0,83,0.00,CLR,,0.00,WeatherDisplay:10.37,2013-02-03 04:27:00,
2013-02-02 23:29:00,17.2,13.0,29.78,West,270,0.0,0.0,83,0.00,CLR,,0.00,WeatherDisplay:10.37,2013-02-03 04:29:00,
2013-02-02 23:31:00,17.2,13.0,29.78,NNE,22,0.0,0.0,83,0.00,CLR,,0.00,WeatherDisplay:10.37,2013-02-03 04:31:00,
2013-02-02 23:36:00,17.2,13.0,29.78,NNW,338,0.0,0.0,83,0.00,CLR,,0.00,WeatherDisplay:10.37,2013-02-03 04:36:00,
2013-02-02 23:41:00,17.1,12.8,29.81,WSW,248,0.0,0.0,83,0.00,CLR,,0.00,WeatherDisplay:10.37,2013-02-03 04:41:00,
2013-02-02 23:46:00,16.9,12.3,29.81,NNE,22,0.0,0.0,82,0.00,CLR,,0.00,WeatherDisplay:10.37,2013-02-03 04:46:00,
2013-02-02 23:51:00,16.9,12.3,29.81,SW,225,0.0,0.0,82,0.00,CLR,,0.00,WeatherDisplay:10.37,2013-02-03 04:51:00,
2013-02-02 23:52:00,16.9,12.3,29.81,NW,315,0.0,0.0,82,0.00,CLR,,0.00,WeatherDisplay:10.37,2013-02-03 04:52:00,
2013-02-02 23:56:00,16.9,12.6,29.81,NNW,338,0.0,0.0,83,0.00,CLR,,0.00,WeatherDisplay:10.37,2013-02-03 04:56:00,
2013-02-02 23:57:00,16.9,12.6,29.81,WSW,248,0.0,0.0,83,0.00,CLR,,0.00,WeatherDisplay:10.37,2013-02-03 04:57:00,